Observation data for Tahoka on 11/14/2019      Previous  Date  Next       Current Mesonet Observations  Soil Data  Daily Summary Page  Observations in Plain Language
KTAS 140600Z 35001KT 00/01 A3006 RMK A01 T00-00-10  RH  093%=      5-min Rain = 0
KTAS 140601Z 35001KT M00/M01 A3006 RMK A01 T10011011  RH  093%=      5-min Rain = 0
KTAS 140602Z 35001KT M00/M01 A3006 RMK A01 T10021012  RH  093%=      5-min Rain = 0
KTAS 140603Z 35001KT M00/M01 A3006 RMK A01 T10021012  RH  093%=      5-min Rain = 0
KTAS 140604Z 35001KT M00/M01 A3006 RMK A01 T10021011  RH  093%=      5-min Rain = 0
KTAS 140605Z 35001KT M00/M01 A3006 RMK A01 T10011010  RH  093%=      5-min Rain = 0
KTAS 140606Z 35001KT 00/01 A3006 RMK A01 T00-00-10  RH  093%=      5-min Rain = 0
KTAS 140607Z 35001KT 00/01 A3006 RMK A01 T00-000-9  RH  094%=      5-min Rain = 0
KTAS 140608Z 35001KT 00/M01 A3006 RMK A01 T00021007  RH  094%=      5-min Rain = 0
KTAS 140609Z 35001KT 00/M01 A3006 RMK A01 T00031006  RH  094%=      5-min Rain = 0
KTAS 140610Z 35001KT 00/M01 A3006 RMK A01 T00031006  RH  094%=      5-min Rain = 0
KTAS 140611Z 35001KT 00/M01 A3006 RMK A01 T00041005  RH  094%=      5-min Rain = 0
KTAS 140612Z 35002KT 00/M00 A3006 RMK A01 T00041004  RH  094%=      5-min Rain = 0
KTAS 140613Z 35002KT 01/M00 A3006 RMK A01 T00051004  RH  094%=      5-min Rain = 0
KTAS 140614Z 35001KT 01/M00 A3006 RMK A01 T00051004  RH  094%=      5-min Rain = 0
KTAS 140615Z 35001KT 01/M00 A3006 RMK A01 T00051004  RH  094%=      5-min Rain = 0
KTAS 140616Z 35001KT 01/M01 A3007 RMK A01 T00051005  RH  093%=      5-min Rain = 0
KTAS 140617Z 35001KT 00/M01 A3007 RMK A01 T00041006  RH  093%=      5-min Rain = 0
KTAS 140618Z 35001KT 00/M01 A3007 RMK A01 T00031007  RH  093%=      5-min Rain = 0
KTAS 140619Z 35001KT 00/M01 A3007 RMK A01 T00021008  RH  093%=      5-min Rain = 0
KTAS 140620Z 35001KT 00/M01 A3007 RMK A01 T00021009  RH  093%=      5-min Rain = 0
KTAS 140621Z 35000KT 00/M01 A3007 RMK A01 T00011009  RH  093%=      5-min Rain = 0
KTAS 140622Z 00000KT M00/M01 A3007 RMK A01 T10011013  RH  092%=      5-min Rain = 0
KTAS 140623Z 00000KT M00/M02 A3007 RMK A01 T10031015  RH  092%=      5-min Rain = 0
KTAS 140624Z 00000KT M00/M02 A3007 RMK A01 T10041016  RH  092%=      5-min Rain = 0
KTAS 140625Z 00000KT M00/M02 A3007 RMK A01 T10041015  RH  092%=      5-min Rain = 0
KTAS 140626Z 00000KT M00/M01 A3007 RMK A01 T10021012  RH  093%=      5-min Rain = 0
KTAS 140627Z 00000KT M00/M01 A3007 RMK A01 T10011010  RH  093%=      5-min Rain = 0
KTAS 140628Z 00000KT 00/01 A3007 RMK A01 T00-00-10  RH  093%=      5-min Rain = 0
KTAS 140629Z 00000KT M00/M01 A3007 RMK A01 T10011011  RH  093%=      5-min Rain = 0
KTAS 140630Z 00000KT M00/M01 A3007 RMK A01 T10011011  RH  093%=      5-min Rain = 0
KTAS 140631Z 00000KT 00/01 A3007 RMK A01 T00-00-10  RH  093%=      5-min Rain = 0
KTAS 140632Z 00000KT 00/M01 A3007 RMK A01 T00011008  RH  094%=      5-min Rain = 0
KTAS 140633Z 00000KT 00/M01 A3007 RMK A01 T00011009  RH  093%=      5-min Rain = 0
KTAS 140634Z 00000KT 00/01 A3008 RMK A01 T00000-10  RH  093%=      5-min Rain = 0
KTAS 140635Z 00000KT 00/01 A3008 RMK A01 T00000-10  RH  093%=      5-min Rain = 0
KTAS 140636Z 00000KT 00/01 A3008 RMK A01 T00-00-11  RH  093%=      5-min Rain = 0
KTAS 140637Z 00000KT M00/M01 A3008 RMK A01 T10011011  RH  093%=      5-min Rain = 0
KTAS 140638Z 00000KT M00/M01 A3008 RMK A01 T10011012  RH  093%=      5-min Rain = 0
KTAS 140639Z 00000KT M00/M01 A3008 RMK A01 T10021012  RH  093%=      5-min Rain = 0
KTAS 140640Z 35000KT M00/M01 A3008 RMK A01 T10021012  RH  093%=      5-min Rain = 0
KTAS 140641Z 34001KT M00/M01 A3008 RMK A01 T10011011  RH  093%=      5-min Rain = 0
KTAS 140642Z 33002KT 00/01 A3008 RMK A01 T00-00-10  RH  093%=      5-min Rain = 0
KTAS 140643Z 33002KT 00/01 A3008 RMK A01 T00-00-10  RH  093%=      5-min Rain = 0
KTAS 140644Z 30003KT 00/01 A3008 RMK A01 T00000-10  RH  093%=      5-min Rain = 0
KTAS 140645Z 29004KT M00/M01 A3008 RMK A01 T10011011  RH  093%=      5-min Rain = 0
KTAS 140646Z 29004KT M00/M01 A3008 RMK A01 T10021012  RH  093%=      5-min Rain = 0
KTAS 140647Z 29004KT M00/M01 A3009 RMK A01 T10021013  RH  092%=      5-min Rain = 0
KTAS 140648Z 29004KT M00/M02 A3009 RMK A01 T10041015  RH  092%=      5-min Rain = 0
KTAS 140649Z 29004KT M01/M02 A3009 RMK A01 T10051017  RH  092%=      5-min Rain = 0
KTAS 140650Z 29004KT M01/M02 A3009 RMK A01 T10071018  RH  092%=      5-min Rain = 0
KTAS 140651Z 29004KT M01/M02 A3009 RMK A01 T10081020  RH  092%=      5-min Rain = 0
KTAS 140652Z 29004KT M01/M02 A3009 RMK A01 T10091020  RH  092%=      5-min Rain = 0
KTAS 140653Z 29005KT M01/M02 A3009 RMK A01 T10091021  RH  092%=      5-min Rain = 0
KTAS 140654Z 29005KT M01/M02 A3009 RMK A01 T10101021  RH  092%=      5-min Rain = 0
KTAS 140655Z 29005KT M01/M02 A3009 RMK A01 T10111022  RH  092%=      5-min Rain = 0
KTAS 140656Z 29005KT M01/M02 A3009 RMK A01 T10121023  RH  092%=      5-min Rain = 0
KTAS 140657Z 29004KT M01/M02 A3009 RMK A01 T10121024  RH  092%=      5-min Rain = 0
KTAS 140658Z 29004KT M01/M02 A3009 RMK A01 T10131024  RH  092%=      5-min Rain = 0
KTAS 140659Z 29004KT M01/M03 A3009 RMK A01 T10141025  RH  092%=      5-min Rain = 0
KTAS 140700Z 29004KT M01/M02 A3009 RMK A01 T10131024  RH  093%=      5-min Rain = 0
KTAS 140701Z 29005KT M01/M02 A3009 RMK A01 T10121022  RH  093%=      5-min Rain = 0
KTAS 140702Z 31005KT M01/M02 A3009 RMK A01 T10111021  RH  093%=      5-min Rain = 0
KTAS 140703Z 31005KT M01/M02 A3009 RMK A01 T10101019  RH  094%=      5-min Rain = 0
KTAS 140704Z 31005KT M01/M02 A3009 RMK A01 T10081016  RH  094%=      5-min Rain = 0
KTAS 140705Z 31005KT M01/M02 A3009 RMK A01 T10071015  RH  094%=      5-min Rain = 0
KTAS 140706Z 32006KT M01/M02 A3009 RMK A01 T10071016  RH  094%=      5-min Rain = 0
KTAS 140707Z 32005KT M01/M02 A3009 RMK A01 T10061015  RH  094%=      5-min Rain = 0
KTAS 140708Z 32006KT M00/M01 A3009 RMK A01 T10041012  RH  094%=      5-min Rain = 0
KTAS 140709Z 32007KT M00/M01 A3009 RMK A01 T10031011  RH  094%=      5-min Rain = 0
KTAS 140710Z 32007KT M00/M01 A3009 RMK A01 T10021011  RH  094%=      5-min Rain = 0
KTAS 140711Z 32007KT M00/M01 A3009 RMK A01 T10021011  RH  094%=      5-min Rain = 0
KTAS 140712Z 32007KT M00/M01 A3009 RMK A01 T10021011  RH  093%=      5-min Rain = 0
KTAS 140713Z 32007KT M00/M01 A3009 RMK A01 T10021011  RH  093%=      5-min Rain = 0
KTAS 140714Z 33007KT M00/M01 A3009 RMK A01 T10011010  RH  093%=      5-min Rain = 0
KTAS 140715Z 33007KT 00/01 A301 RMK A01 T00-00-10  RH  093%=      5-min Rain = 0
KTAS 140716Z 33006KT M00/M01 A301 RMK A01 T10011011  RH  093%=      5-min Rain = 0
KTAS 140717Z 32006KT M00/M01 A301 RMK A01 T10011011  RH  093%=      5-min Rain = 0
KTAS 140718Z 33006KT M00/M01 A301 RMK A01 T10011012  RH  092%=      5-min Rain = 0
KTAS 140719Z 32007KT M00/M01 A301 RMK A01 T10011012  RH  092%=      5-min Rain = 0
KTAS 140720Z 32007KT M00/M01 A301 RMK A01 T10011012  RH  092%=      5-min Rain = 0
KTAS 140721Z 32007KT M00/M01 A301 RMK A01 T10011012  RH  092%=      5-min Rain = 0
KTAS 140722Z 32008KT M00/M01 A301 RMK A01 T10011013  RH  092%=      5-min Rain = 0
KTAS 140723Z 32008KT M00/M01 A301 RMK A01 T10021013  RH  092%=      5-min Rain = 0
KTAS 140724Z 33008KT M00/M01 A301 RMK A01 T10021014  RH  092%=      5-min Rain = 0
KTAS 140725Z 33008KT M00/M01 A301 RMK A01 T10021014  RH  092%=      5-min Rain = 0
KTAS 140726Z 33007KT M00/M01 A301 RMK A01 T10021013  RH  092%=      5-min Rain = 0
KTAS 140727Z 33007KT M00/M01 A301 RMK A01 T10021013  RH  092%=      5-min Rain = 0
KTAS 140728Z 33007KT M00/M01 A301 RMK A01 T10021013  RH  092%=      5-min Rain = 0
KTAS 140729Z 33007KT M00/M01 A301 RMK A01 T10021013  RH  092%=      5-min Rain = 0
KTAS 140730Z 33007KT M00/M01 A301 RMK A01 T10021013  RH  092%=      5-min Rain = 0
KTAS 140731Z 33007KT M00/M01 A301 RMK A01 T10031014  RH  092%=      5-min Rain = 0
KTAS 140732Z 33006KT M00/M01 A301 RMK A01 T10021013  RH  092%=      5-min Rain = 0
KTAS 140733Z 33007KT M00/M01 A301 RMK A01 T10021013  RH  092%=      5-min Rain = 0
KTAS 140734Z 33007KT M00/M01 A301 RMK A01 T10021012  RH  093%=      5-min Rain = 0
KTAS 140735Z 33007KT M00/M01 A301 RMK A01 T10021012  RH  093%=      5-min Rain = 0
KTAS 140736Z 33007KT M00/M01 A301 RMK A01 T10011012  RH  093%=      5-min Rain = 0
KTAS 140737Z 33007KT M00/M01 A301 RMK A01 T10011011  RH  093%=      5-min Rain = 0
KTAS 140738Z 33007KT M00/M01 A301 RMK A01 T10011011  RH  093%=      5-min Rain = 0
KTAS 140739Z 33007KT 00/01 A301 RMK A01 T00000-10  RH  093%=      5-min Rain = 0
KTAS 140740Z 33007KT 00/M01 A301 RMK A01 T00011010  RH  093%=      5-min Rain = 0
KTAS 140741Z 33007KT 00/M01 A301 RMK A01 T00011010  RH  093%=      5-min Rain = 0
KTAS 140742Z 33007KT 00/M01 A3011 RMK A01 T00011010  RH  093%=      5-min Rain = 0
KTAS 140743Z 33007KT 00/M01 A3011 RMK A01 T00021009  RH  093%=      5-min Rain = 0
KTAS 140744Z 33007KT 00/M01 A3011 RMK A01 T00021008  RH  093%=      5-min Rain = 0
KTAS 140745Z 33007KT 00/M01 A3011 RMK A01 T00021009  RH  093%=      5-min Rain = 0
KTAS 140746Z 33007KT 00/M01 A3011 RMK A01 T00021008  RH  093%=      5-min Rain = 0
KTAS 140747Z 33007KT 00/M01 A3011 RMK A01 T00031008  RH  093%=      5-min Rain = 0
KTAS 140748Z 33007KT 00/M01 A3011 RMK A01 T00031008  RH  093%=      5-min Rain = 0
KTAS 140749Z 33007KT 00/M01 A3011 RMK A01 T00031007  RH  093%=      5-min Rain = 0
KTAS 140750Z 33007KT 00/M01 A3011 RMK A01 T00031007  RH  093%=      5-min Rain = 0
KTAS 140751Z 33007KT 00/M01 A3011 RMK A01 T00041007  RH  093%=      5-min Rain = 0
KTAS 140752Z 33007KT 01/M01 A3011 RMK A01 T00051006  RH  093%=      5-min Rain = 0
KTAS 140753Z 34007KT 01/M01 A3011 RMK A01 T00051006  RH  093%=      5-min Rain = 0
KTAS 140754Z 34007KT 01/M01 A3011 RMK A01 T00051006  RH  093%=      5-min Rain = 0
KTAS 140755Z 34007KT 01/M01 A3011 RMK A01 T00051005  RH  093%=      5-min Rain = 0
KTAS 140756Z 34007KT 01/M01 A3011 RMK A01 T00061005  RH  093%=      5-min Rain = 0
KTAS 140757Z 34007KT 01/M01 A3011 RMK A01 T00061005  RH  092%=      5-min Rain = 0
KTAS 140758Z 34006KT 01/M01 A3011 RMK A01 T00061005  RH  092%=      5-min Rain = 0
KTAS 140759Z 34006KT 01/M00 A3011 RMK A01 T00071004  RH  092%=      5-min Rain = 0
KTAS 140800Z 34006KT 01/M01 A3011 RMK A01 T00071005  RH  092%=      5-min Rain = 0
KTAS 140801Z 34006KT 01/M01 A3011 RMK A01 T00061005  RH  092%=      5-min Rain = 0
KTAS 140802Z 34006KT 01/M01 A3011 RMK A01 T00061006  RH  092%=      5-min Rain = 0
KTAS 140803Z 34005KT 01/M01 A3011 RMK A01 T00051006  RH  092%=      5-min Rain = 0
KTAS 140804Z 34005KT 01/M01 A3011 RMK A01 T00051007  RH  092%=      5-min Rain = 0
KTAS 140805Z 34006KT 01/M01 A3011 RMK A01 T00051007  RH  092%=      5-min Rain = 0
KTAS 140806Z 34005KT 01/M01 A3012 RMK A01 T00051007  RH  092%=      5-min Rain = 0
KTAS 140807Z 35005KT 00/M01 A3012 RMK A01 T00041007  RH  092%=      5-min Rain = 0
KTAS 140808Z 34005KT 00/M01 A3012 RMK A01 T00041007  RH  092%=      5-min Rain = 0
KTAS 140809Z 35005KT 00/M01 A3012 RMK A01 T00041008  RH  092%=      5-min Rain = 0
KTAS 140810Z 35005KT 00/M01 A3012 RMK A01 T00031008  RH  092%=      5-min Rain = 0
KTAS 140811Z 35006KT 00/M01 A3012 RMK A01 T00041008  RH  092%=      5-min Rain = 0
KTAS 140812Z 35006KT 00/M01 A3012 RMK A01 T00031008  RH  092%=      5-min Rain = 0
KTAS 140813Z 35006KT 00/M01 A3012 RMK A01 T00031008  RH  092%=      5-min Rain = 0
KTAS 140814Z 35006KT 00/M01 A3012 RMK A01 T00031008  RH  092%=      5-min Rain = 0
KTAS 140815Z 35006KT 00/M01 A3012 RMK A01 T00031008  RH  092%=      5-min Rain = 0
KTAS 140816Z 35006KT 00/M01 A3012 RMK A01 T00031009  RH  092%=      5-min Rain = 0
KTAS 140817Z 36006KT 00/M01 A3012 RMK A01 T00021010  RH  092%=      5-min Rain = 0
KTAS 140818Z 00007KT 00/M01 A3012 RMK A01 T00021011  RH  092%=      5-min Rain = 0
KTAS 140819Z 00006KT 00/M01 A3012 RMK A01 T00011011  RH  092%=      5-min Rain = 0
KTAS 140820Z 00007KT 00/M01 A3012 RMK A01 T00011011  RH  092%=      5-min Rain = 0
KTAS 140821Z 00007KT 00/M01 A3012 RMK A01 T00011011  RH  092%=      5-min Rain = 0
KTAS 140822Z 00008KT 00/M01 A3012 RMK A01 T00011011  RH  092%=      5-min Rain = 0
KTAS 140823Z 00008KT 00/01 A3012 RMK A01 T00000-12  RH  092%=      5-min Rain = 0
KTAS 140824Z 00009KT 00/01 A3012 RMK A01 T00000-11  RH  092%=      5-min Rain = 0
KTAS 140825Z 00009KT 00/M01 A3012 RMK A01 T00011011  RH  092%=      5-min Rain = 0
KTAS 140826Z 00009KT 00/M01 A3012 RMK A01 T00011010  RH  092%=      5-min Rain = 0
KTAS 140827Z 00009KT 00/M01 A3012 RMK A01 T00021009  RH  092%=      5-min Rain = 0
KTAS 140828Z 00010KT 00/M01 A3012 RMK A01 T00031008  RH  092%=      5-min Rain = 0
KTAS 140829Z 00010KT 00/M01 A3012 RMK A01 T00041007  RH  092%=      5-min Rain = 0
KTAS 140830Z 00010KT 01/M01 A3012 RMK A01 T00061005  RH  092%=      5-min Rain = 0
KTAS 140831Z 00010KT 01/M00 A3012 RMK A01 T00081003  RH  092%=      5-min Rain = 0
KTAS 140832Z 00009KT 01/M00 A3012 RMK A01 T00091002  RH  092%=      5-min Rain = 0
KTAS 140833Z 00009KT 01/M00 A3012 RMK A01 T00111002  RH  091%=      5-min Rain = 0
KTAS 140834Z 00009KT 01/M00 A3013 RMK A01 T00111003  RH  091%=      5-min Rain = 0
KTAS 140835Z 00009KT 01/M00 A3013 RMK A01 T00111003  RH  091%=      5-min Rain = 0
KTAS 140836Z 00008KT 01/M00 A3013 RMK A01 T00111003  RH  090%=      5-min Rain = 0
KTAS 140837Z 00008KT 01/M00 A3013 RMK A01 T00121003  RH  090%=      5-min Rain = 0
KTAS 140838Z 00008KT 01/M00 A3013 RMK A01 T00111004  RH  090%=      5-min Rain = 0
KTAS 140839Z 00008KT 01/M00 A3013 RMK A01 T00111004  RH  090%=      5-min Rain = 0
KTAS 140840Z 00007KT 01/M00 A3013 RMK A01 T00111004  RH  090%=      5-min Rain = 0
KTAS 140841Z 01008KT 01/M01 A3013 RMK A01 T00111005  RH  090%=      5-min Rain = 0
KTAS 140842Z 01007KT 01/M00 A3013 RMK A01 T00111004  RH  090%=      5-min Rain = 0
KTAS 140843Z 01008KT 01/M00 A3013 RMK A01 T00121003  RH  090%=      5-min Rain = 0
KTAS 140844Z 01008KT 01/M00 A3013 RMK A01 T00121003  RH  090%=      5-min Rain = 0
KTAS 140845Z 01008KT 01/M00 A3013 RMK A01 T00131003  RH  090%=      5-min Rain = 0
KTAS 140846Z 01008KT 01/M00 A3013 RMK A01 T00131002  RH  089%=      5-min Rain = 0
KTAS 140847Z 01008KT 01/M00 A3013 RMK A01 T00131002  RH  089%=      5-min Rain = 0
KTAS 140848Z 01009KT 02/M00 A3013 RMK A01 T00151002  RH  089%=      5-min Rain = 0
KTAS 140849Z 01008KT 02/M00 A3013 RMK A01 T00151002  RH  089%=      5-min Rain = 0
KTAS 140850Z 01009KT 02/M00 A3013 RMK A01 T00151002  RH  088%=      5-min Rain = 0
KTAS 140851Z 01009KT 02/M00 A3013 RMK A01 T00161002  RH  088%=      5-min Rain = 0
KTAS 140852Z 01010KT 02/M00 A3013 RMK A01 T00161002  RH  088%=      5-min Rain = 0
KTAS 140853Z 01009KT 02/M00 A3013 RMK A01 T00161002  RH  088%=      5-min Rain = 0
KTAS 140854Z 01010KT 02/M00 A3013 RMK A01 T00171002  RH  087%=      5-min Rain = 0
KTAS 140855Z 01009KT 02/M00 A3013 RMK A01 T00171002  RH  087%=      5-min Rain = 0
KTAS 140856Z 01009KT 02/M00 A3013 RMK A01 T00171002  RH  087%=      5-min Rain = 0
KTAS 140857Z 01009KT 02/M00 A3013 RMK A01 T00171002  RH  087%=      5-min Rain = 0
KTAS 140858Z 01009KT 02/M00 A3014 RMK A01 T00171003  RH  087%=      5-min Rain = 0
KTAS 140859Z 01009KT 02/M00 A3014 RMK A01 T00171002  RH  087%=      5-min Rain = 0
KTAS 140900Z 01009KT 02/M00 A3014 RMK A01 T00171002  RH  087%=      5-min Rain = 0
KTAS 140901Z 01009KT 02/M00 A3014 RMK A01 T00171003  RH  087%=      5-min Rain = 0
KTAS 140902Z 00009KT 02/M00 A3014 RMK A01 T00171003  RH  087%=      5-min Rain = 0
KTAS 140903Z 01008KT 02/M00 A3014 RMK A01 T00171003  RH  086%=      5-min Rain = 0
KTAS 140904Z 01009KT 02/M00 A3014 RMK A01 T00171003  RH  086%=      5-min Rain = 0
KTAS 140905Z 01008KT 02/M00 A3014 RMK A01 T00171004  RH  086%=      5-min Rain = 0
KTAS 140906Z 01008KT 02/M00 A3014 RMK A01 T00171004  RH  086%=      5-min Rain = 0
KTAS 140907Z 01008KT 02/M00 A3014 RMK A01 T00171004  RH  086%=      5-min Rain = 0
KTAS 140908Z 01008KT 02/M00 A3014 RMK A01 T00171004  RH  086%=      5-min Rain = 0
KTAS 140909Z 01008KT 02/M00 A3014 RMK A01 T00171004  RH  086%=      5-min Rain = 0
KTAS 140910Z 01008KT 02/M00 A3014 RMK A01 T00171004  RH  086%=      5-min Rain = 0
KTAS 140911Z 01009KT 02/M00 A3014 RMK A01 T00171004  RH  086%=      5-min Rain = 0
KTAS 140912Z 00008KT 02/M00 A3014 RMK A01 T00171004  RH  086%=      5-min Rain = 0
KTAS 140913Z 01009KT 02/M00 A3014 RMK A01 T00171004  RH  086%=      5-min Rain = 0
KTAS 140914Z 00008KT 02/M00 A3014 RMK A01 T00171004  RH  086%=      5-min Rain = 0
KTAS 140915Z 00009KT 02/M01 A3014 RMK A01 T00161005  RH  086%=      5-min Rain = 0
KTAS 140916Z 00009KT 02/M01 A3014 RMK A01 T00161005  RH  086%=      5-min Rain = 0
KTAS 140917Z 36009KT 02/M01 A3014 RMK A01 T00161005  RH  086%=      5-min Rain = 0
KTAS 140918Z 36008KT 02/M01 A3015 RMK A01 T00151006  RH  086%=      5-min Rain = 0
KTAS 140919Z 36008KT 02/M01 A3015 RMK A01 T00151006  RH  086%=      5-min Rain = 0
KTAS 140920Z 36009KT 02/M01 A3015 RMK A01 T00151006  RH  086%=      5-min Rain = 0
KTAS 140921Z 35009KT 02/M01 A3015 RMK A01 T00151006  RH  086%=      5-min Rain = 0
KTAS 140922Z 36009KT 02/M01 A3015 RMK A01 T00151006  RH  086%=      5-min Rain = 0
KTAS 140923Z 36008KT 02/M01 A3015 RMK A01 T00151006  RH  086%=      5-min Rain = 0
KTAS 140924Z 36009KT 02/M01 A3015 RMK A01 T00151006  RH  086%=      5-min Rain = 0
KTAS 140925Z 36009KT 02/M01 A3015 RMK A01 T00151007  RH  085%=      5-min Rain = 0
KTAS 140926Z 00009KT 02/M01 A3015 RMK A01 T00151006  RH  085%=      5-min Rain = 0
KTAS 140927Z 36009KT 02/M01 A3015 RMK A01 T00151007  RH  085%=      5-min Rain = 0
KTAS 140928Z 00010KT 02/M01 A3015 RMK A01 T00151007  RH  085%=      5-min Rain = 0
KTAS 140929Z 00009KT 02/M01 A3015 RMK A01 T00151007  RH  085%=      5-min Rain = 0
KTAS 140930Z 00009KT 02/M01 A3015 RMK A01 T00151008  RH  085%=      5-min Rain = 0
KTAS 140931Z 00009KT 02/M01 A3015 RMK A01 T00151007  RH  085%=      5-min Rain = 0
KTAS 140932Z 00009KT 02/M01 A3015 RMK A01 T00151007  RH  085%=      5-min Rain = 0
KTAS 140933Z 00009KT 02/M01 A3015 RMK A01 T00151007  RH  085%=      5-min Rain = 0
KTAS 140934Z 00009KT 02/M01 A3015 RMK A01 T00151007  RH  085%=      5-min Rain = 0
KTAS 140935Z 00009KT 02/M01 A3015 RMK A01 T00151008  RH  085%=      5-min Rain = 0
KTAS 140936Z 00009KT 02/M01 A3015 RMK A01 T00151008  RH  085%=      5-min Rain = 0
KTAS 140937Z 00008KT 02/M01 A3015 RMK A01 T00151008  RH  085%=      5-min Rain = 0
KTAS 140938Z 00008KT 01/M01 A3015 RMK A01 T00141008  RH  085%=      5-min Rain = 0
KTAS 140939Z 36008KT 01/M01 A3015 RMK A01 T00131008  RH  085%=      5-min Rain = 0
KTAS 140940Z 00007KT 01/M01 A3015 RMK A01 T00131008  RH  085%=      5-min Rain = 0
KTAS 140941Z 36009KT 01/M01 A3015 RMK A01 T00131008  RH  085%=      5-min Rain = 0
KTAS 140942Z 36009KT 01/M01 A3015 RMK A01 T00131008  RH  085%=      5-min Rain = 0
KTAS 140943Z 36009KT 01/M01 A3015 RMK A01 T00141008  RH  085%=      5-min Rain = 0
KTAS 140944Z 00009KT 01/M01 A3015 RMK A01 T00141008  RH  085%=      5-min Rain = 0
KTAS 140945Z 00009KT 01/M01 A3015 RMK A01 T00141009  RH  085%=      5-min Rain = 0
KTAS 140946Z 00008KT 01/M01 A3015 RMK A01 T00141009  RH  085%=      5-min Rain = 0
KTAS 140947Z 00008KT 01/M01 A3015 RMK A01 T00131009  RH  085%=      5-min Rain = 0
KTAS 140948Z 00009KT 01/M01 A3015 RMK A01 T00131009  RH  085%=      5-min Rain = 0
KTAS 140949Z 01008KT 01/M01 A3015 RMK A01 T00131009  RH  085%=      5-min Rain = 0
KTAS 140950Z 00009KT 01/M01 A3015 RMK A01 T00131009  RH  085%=      5-min Rain = 0
KTAS 140951Z 01009KT 01/M01 A3015 RMK A01 T00141009  RH  085%=      5-min Rain = 0
KTAS 140952Z 00009KT 01/M01 A3015 RMK A01 T00141009  RH  085%=      5-min Rain = 0
KTAS 140953Z 01008KT 01/M01 A3015 RMK A01 T00141009  RH  085%=      5-min Rain = 0
KTAS 140954Z 01009KT 01/M01 A3016 RMK A01 T00141009  RH  085%=      5-min Rain = 0
KTAS 140955Z 01009KT 02/M01 A3016 RMK A01 T00151009  RH  084%=      5-min Rain = 0
KTAS 140956Z 01010KT 02/M01 A3016 RMK A01 T00151009  RH  084%=      5-min Rain = 0
KTAS 140957Z 01009KT 01/M01 A3016 RMK A01 T00141009  RH  084%=      5-min Rain = 0
KTAS 140958Z 01009KT 01/M01 A3016 RMK A01 T00141009  RH  085%=      5-min Rain = 0
KTAS 140959Z 01009KT 01/M01 A3016 RMK A01 T00141009  RH  084%=      5-min Rain = 0
KTAS 141000Z 01009KT 01/M01 A3016 RMK A01 T00141009  RH  085%=      5-min Rain = 0
KTAS 141001Z 01009KT 01/M01 A3016 RMK A01 T00141009  RH  085%=      5-min Rain = 0
KTAS 141002Z 01009KT 01/M01 A3016 RMK A01 T00141009  RH  085%=      5-min Rain = 0
KTAS 141003Z 01009KT 01/M01 A3016 RMK A01 T00141009  RH  084%=      5-min Rain = 0
KTAS 141004Z 01009KT 01/M01 A3016 RMK A01 T00141010  RH  084%=      5-min Rain = 0
KTAS 141005Z 01009KT 01/M01 A3016 RMK A01 T00131010  RH  084%=      5-min Rain = 0
KTAS 141006Z 01009KT 01/M01 A3016 RMK A01 T00131010  RH  084%=      5-min Rain = 0
KTAS 141007Z 01008KT 01/M01 A3016 RMK A01 T00131010  RH  084%=      5-min Rain = 0
KTAS 141008Z 01008KT 01/M01 A3016 RMK A01 T00131010  RH  084%=      5-min Rain = 0
KTAS 141009Z 01009KT 01/M01 A3016 RMK A01 T00131010  RH  084%=      5-min Rain = 0
KTAS 141010Z 01008KT 01/M01 A3016 RMK A01 T00131010  RH  084%=      5-min Rain = 0
KTAS 141011Z 01008KT 01/M01 A3016 RMK A01 T00131010  RH  084%=      5-min Rain = 0
KTAS 141012Z 01008KT 01/M01 A3016 RMK A01 T00131011  RH  085%=      5-min Rain = 0
KTAS 141013Z 01009KT 01/M01 A3016 RMK A01 T00131011  RH  085%=      5-min Rain = 0
KTAS 141014Z 01009KT 01/M01 A3016 RMK A01 T00131011  RH  085%=      5-min Rain = 0
KTAS 141015Z 01009KT 01/M01 A3016 RMK A01 T00121011  RH  085%=      5-min Rain = 0
KTAS 141016Z 01010KT 01/M01 A3016 RMK A01 T00121011  RH  085%=      5-min Rain = 0
KTAS 141017Z 01010KT 01/M01 A3016 RMK A01 T00131010  RH  085%=      5-min Rain = 0
KTAS 141018Z 01010KT 01/M01 A3016 RMK A01 T00131010  RH  085%=      5-min Rain = 0
KTAS 141019Z 01010KT 01/M01 A3016 RMK A01 T00131010  RH  084%=      5-min Rain = 0
KTAS 141020Z 01011KT 01/M01 A3016 RMK A01 T00141010  RH  084%=      5-min Rain = 0
KTAS 141021Z 01010KT 01/M01 A3016 RMK A01 T00141010  RH  084%=      5-min Rain = 0
KTAS 141022Z 01011KT 02/M01 A3016 RMK A01 T00151010  RH  084%=      5-min Rain = 0
KTAS 141023Z 01010KT 02/M01 A3016 RMK A01 T00151010  RH  084%=      5-min Rain = 0
KTAS 141024Z 01009KT 01/M01 A3016 RMK A01 T00141010  RH  084%=      5-min Rain = 0
KTAS 141025Z 01010KT 01/M01 A3016 RMK A01 T00141011  RH  084%=      5-min Rain = 0
KTAS 141026Z 01010KT 01/M01 A3016 RMK A01 T00141010  RH  084%=      5-min Rain = 0
KTAS 141027Z 01009KT 01/M01 A3016 RMK A01 T00141011  RH  084%=      5-min Rain = 0
KTAS 141028Z 01010KT 01/M01 A3016 RMK A01 T00141011  RH  084%=      5-min Rain = 0
KTAS 141029Z 01011KT 01/M01 A3016 RMK A01 T00141011  RH  084%=      5-min Rain = 0
KTAS 141030Z 01010KT 01/M01 A3016 RMK A01 T00141010  RH  084%=      5-min Rain = 0
KTAS 141031Z 01010KT 02/M01 A3016 RMK A01 T00151010  RH  083%=      5-min Rain = 0
KTAS 141032Z 01011KT 02/M01 A3016 RMK A01 T00151010  RH  083%=      5-min Rain = 0
KTAS 141033Z 01010KT 02/M01 A3016 RMK A01 T00161010  RH  083%=      5-min Rain = 0
KTAS 141034Z 01011KT 02/M01 A3016 RMK A01 T00161010  RH  083%=      5-min Rain = 0
KTAS 141035Z 01012KT 02/M01 A3016 RMK A01 T00161010  RH  083%=      5-min Rain = 0
KTAS 141036Z 01011KT 02/M01 A3016 RMK A01 T00171010  RH  082%=      5-min Rain = 0
KTAS 141037Z 01011KT 02/M01 A3016 RMK A01 T00181010  RH  082%=      5-min Rain = 0
KTAS 141038Z 01011KT 02/M01 A3016 RMK A01 T00181010  RH  081%=      5-min Rain = 0
KTAS 141039Z 01011KT 02/M01 A3016 RMK A01 T00191010  RH  081%=      5-min Rain = 0
KTAS 141040Z 01011KT 02/M01 A3016 RMK A01 T00191010  RH  081%=      5-min Rain = 0
KTAS 141041Z 01012KT 02/M01 A3016 RMK A01 T00181010  RH  081%=      5-min Rain = 0
KTAS 141042Z 01011KT 02/M01 A3016 RMK A01 T00191010  RH  081%=      5-min Rain = 0
KTAS 141043Z 01009KT 02/M01 A3016 RMK A01 T00181011  RH  081%=      5-min Rain = 0
KTAS 141044Z 01012KT 02/M01 A3016 RMK A01 T00181011  RH  081%=      5-min Rain = 0
KTAS 141045Z 02011KT 02/M01 A3016 RMK A01 T00191011  RH  081%=      5-min Rain = 0
KTAS 141046Z 01011KT 02/M01 A3016 RMK A01 T00201011  RH  080%=      5-min Rain = 0
KTAS 141047Z 02011KT 02/M01 A3016 RMK A01 T00201011  RH  080%=      5-min Rain = 0
KTAS 141048Z 02012KT 02/M01 A3017 RMK A01 T00201011  RH  080%=      5-min Rain = 0
KTAS 141049Z 01011KT 02/M01 A3017 RMK A01 T00201011  RH  080%=      5-min Rain = 0
KTAS 141050Z 01012KT 02/M01 A3017 RMK A01 T00211012  RH  079%=      5-min Rain = 0
KTAS 141051Z 02011KT 02/M01 A3017 RMK A01 T00211012  RH  079%=      5-min Rain = 0
KTAS 141052Z 02010KT 02/M01 A3017 RMK A01 T00211012  RH  079%=      5-min Rain = 0
KTAS 141053Z 01010KT 02/M01 A3017 RMK A01 T00211012  RH  079%=      5-min Rain = 0
KTAS 141054Z 01009KT 02/M01 A3017 RMK A01 T00211012  RH  079%=      5-min Rain = 0
KTAS 141055Z 01010KT 02/M01 A3017 RMK A01 T00201013  RH  079%=      5-min Rain = 0
KTAS 141056Z 01011KT 02/M01 A3017 RMK A01 T00201013  RH  079%=      5-min Rain = 0
KTAS 141057Z 01009KT 02/M01 A3018 RMK A01 T00201013  RH  079%=      5-min Rain = 0
KTAS 141058Z 01009KT 02/M01 A3018 RMK A01 T00201013  RH  079%=      5-min Rain = 0
KTAS 141059Z 01010KT 02/M01 A3018 RMK A01 T00191014  RH  079%=      5-min Rain = 0
KTAS 141100Z 01009KT 02/M01 A3018 RMK A01 T00191013  RH  079%=      5-min Rain = 0
KTAS 141101Z 01009KT 02/M01 A3018 RMK A01 T00191014  RH  079%=      5-min Rain = 0
KTAS 141102Z 01009KT 02/M01 A3018 RMK A01 T00191014  RH  079%=      5-min Rain = 0
KTAS 141103Z 01008KT 02/M01 A3018 RMK A01 T00181014  RH  079%=      5-min Rain = 0
KTAS 141104Z 01009KT 02/M01 A3018 RMK A01 T00171014  RH  079%=      5-min Rain = 0
KTAS 141105Z 01009KT 02/M01 A3018 RMK A01 T00171014  RH  080%=      5-min Rain = 0
KTAS 141106Z 01009KT 02/M02 A3018 RMK A01 T00161015  RH  080%=      5-min Rain = 0
KTAS 141107Z 01009KT 02/M02 A3018 RMK A01 T00151015  RH  080%=      5-min Rain = 0
KTAS 141108Z 01009KT 02/M02 A3018 RMK A01 T00151015  RH  081%=      5-min Rain = 0
KTAS 141109Z 01009KT 01/M02 A3018 RMK A01 T00141015  RH  081%=      5-min Rain = 0
KTAS 141110Z 01008KT 01/M02 A3018 RMK A01 T00141016  RH  081%=      5-min Rain = 0
KTAS 141111Z 01008KT 01/M02 A3018 RMK A01 T00131016  RH  081%=      5-min Rain = 0
KTAS 141112Z 01008KT 01/M02 A3018 RMK A01 T00131016  RH  081%=      5-min Rain = 0
KTAS 141113Z 01009KT 01/M02 A3018 RMK A01 T00121016  RH  081%=      5-min Rain = 0
KTAS 141114Z 01008KT 01/M02 A3018 RMK A01 T00131016  RH  081%=      5-min Rain = 0
KTAS 141115Z 01009KT 01/M02 A3018 RMK A01 T00121016  RH  081%=      5-min Rain = 0
KTAS 141116Z 02009KT 01/M02 A3018 RMK A01 T00121017  RH  081%=      5-min Rain = 0
KTAS 141117Z 01010KT 01/M02 A3018 RMK A01 T00121017  RH  081%=      5-min Rain = 0
KTAS 141118Z 01009KT 01/M02 A3018 RMK A01 T00121017  RH  081%=      5-min Rain = 0
KTAS 141119Z 02010KT 01/M02 A3018 RMK A01 T00121017  RH  081%=      5-min Rain = 0
KTAS 141120Z 02010KT 01/M02 A3018 RMK A01 T00131017  RH  081%=      5-min Rain = 0
KTAS 141121Z 01010KT 01/M02 A3018 RMK A01 T00131017  RH  081%=      5-min Rain = 0
KTAS 141122Z 02010KT 01/M02 A3018 RMK A01 T00131017  RH  081%=      5-min Rain = 0
KTAS 141123Z 02010KT 01/M02 A3018 RMK A01 T00131017  RH  080%=      5-min Rain = 0
KTAS 141124Z 02009KT 01/M02 A3018 RMK A01 T00131017  RH  080%=      5-min Rain = 0
KTAS 141125Z 02010KT 01/M02 A3018 RMK A01 T00131017  RH  080%=      5-min Rain = 0
KTAS 141126Z 02011KT 01/M02 A3018 RMK A01 T00141017  RH  080%=      5-min Rain = 0
KTAS 141127Z 02010KT 01/M02 A3018 RMK A01 T00141017  RH  080%=      5-min Rain = 0
KTAS 141128Z 02011KT 02/M02 A3018 RMK A01 T00151017  RH  080%=      5-min Rain = 0
KTAS 141129Z 02011KT 02/M02 A3019 RMK A01 T00151017  RH  079%=      5-min Rain = 0
KTAS 141130Z 02010KT 02/M02 A3019 RMK A01 T00151017  RH  079%=      5-min Rain = 0
KTAS 141131Z 02010KT 01/M02 A3019 RMK A01 T00141018  RH  079%=      5-min Rain = 0
KTAS 141132Z 01010KT 01/M02 A3019 RMK A01 T00141017  RH  080%=      5-min Rain = 0
KTAS 141133Z 02011KT 01/M02 A3019 RMK A01 T00141018  RH  079%=      5-min Rain = 0
KTAS 141134Z 02010KT 01/M02 A3019 RMK A01 T00141018  RH  079%=      5-min Rain = 0
KTAS 141135Z 02010KT 01/M02 A3019 RMK A01 T00131018  RH  079%=      5-min Rain = 0
KTAS 141136Z 02010KT 01/M02 A3019 RMK A01 T00131019  RH  079%=      5-min Rain = 0
KTAS 141137Z 01011KT 01/M02 A3019 RMK A01 T00131019  RH  079%=      5-min Rain = 0
KTAS 141138Z 01010KT 01/M02 A3019 RMK A01 T00141019  RH  079%=      5-min Rain = 0
KTAS 141139Z 02011KT 01/M02 A3019 RMK A01 T00141019  RH  079%=      5-min Rain = 0
KTAS 141140Z 02010KT 01/M02 A3019 RMK A01 T00141019  RH  079%=      5-min Rain = 0
KTAS 141141Z 02010KT 01/M02 A3019 RMK A01 T00131019  RH  079%=      5-min Rain = 0
KTAS 141142Z 02010KT 01/M02 A3019 RMK A01 T00131019  RH  079%=      5-min Rain = 0
KTAS 141143Z 01010KT 01/M02 A3019 RMK A01 T00131020  RH  079%=      5-min Rain = 0
KTAS 141144Z 02009KT 01/M02 A3019 RMK A01 T00131020  RH  079%=      5-min Rain = 0
KTAS 141145Z 02010KT 01/M02 A3019 RMK A01 T00131020  RH  079%=      5-min Rain = 0
KTAS 141146Z 02010KT 01/M02 A3019 RMK A01 T00131020  RH  079%=      5-min Rain = 0
KTAS 141147Z 01009KT 01/M02 A302 RMK A01 T00131020  RH  079%=      5-min Rain = 0
KTAS 141148Z 01010KT 01/M02 A302 RMK A01 T00131020  RH  079%=      5-min Rain = 0
KTAS 141149Z 02010KT 01/M02 A302 RMK A01 T00121020  RH  079%=      5-min Rain = 0
KTAS 141150Z 02010KT 01/M02 A302 RMK A01 T00121021  RH  079%=      5-min Rain = 0
KTAS 141151Z 01010KT 01/M02 A302 RMK A01 T00121021  RH  079%=      5-min Rain = 0
KTAS 141152Z 02011KT 01/M02 A302 RMK A01 T00121021  RH  079%=      5-min Rain = 0
KTAS 141153Z 01010KT 01/M02 A302 RMK A01 T00121021  RH  079%=      5-min Rain = 0
KTAS 141154Z 02010KT 01/M02 A302 RMK A01 T00121021  RH  079%=      5-min Rain = 0
KTAS 141155Z 02010KT 01/M02 A302 RMK A01 T00121021  RH  079%=      5-min Rain = 0
KTAS 141156Z 02010KT 01/M02 A302 RMK A01 T00111022  RH  079%=      5-min Rain = 0
KTAS 141157Z 02009KT 01/M02 A302 RMK A01 T00111022  RH  079%=      5-min Rain = 0
KTAS 141158Z 02010KT 01/M02 A302 RMK A01 T00111022  RH  079%=      5-min Rain = 0
KTAS 141159Z 02010KT 01/M02 A302 RMK A01 T00111021  RH  079%=      5-min Rain = 0
KTAS 141200Z 02011KT 01/M02 A302 RMK A01 T00121022  RH  079%=      5-min Rain = 0
KTAS 141201Z 02010KT 01/M02 A302 RMK A01 T00121021  RH  078%=      5-min Rain = 0
KTAS 141202Z 02011KT 01/M02 A302 RMK A01 T00131021  RH  078%=      5-min Rain = 0
KTAS 141203Z 03010KT 01/M02 A302 RMK A01 T00131021  RH  078%=      5-min Rain = 0
KTAS 141204Z 02011KT 01/M02 A302 RMK A01 T00131022  RH  077%=      5-min Rain = 0
KTAS 141205Z 03010KT 01/M02 A3021 RMK A01 T00131022  RH  077%=      5-min Rain = 0
KTAS 141206Z 02010KT 01/M02 A3021 RMK A01 T00131022  RH  077%=      5-min Rain = 0
KTAS 141207Z 03010KT 01/M02 A3021 RMK A01 T00141022  RH  077%=      5-min Rain = 0
KTAS 141208Z 03010KT 02/M02 A3021 RMK A01 T00151022  RH  076%=      5-min Rain = 0
KTAS 141209Z 03012KT 02/M02 A3021 RMK A01 T00151023  RH  076%=      5-min Rain = 0
KTAS 141210Z 03010KT 02/M02 A3021 RMK A01 T00151023  RH  076%=      5-min Rain = 0
KTAS 141211Z 03009KT 02/M02 A3021 RMK A01 T00151023  RH  076%=      5-min Rain = 0
KTAS 141212Z 03010KT 02/M02 A3021 RMK A01 T00151023  RH  076%=      5-min Rain = 0
KTAS 141213Z 03010KT 02/M02 A3021 RMK A01 T00151023  RH  076%=      5-min Rain = 0
KTAS 141214Z 02009KT 02/M02 A3021 RMK A01 T00151023  RH  075%=      5-min Rain = 0
KTAS 141215Z 03010KT 02/M02 A3021 RMK A01 T00151023  RH  076%=      5-min Rain = 0
KTAS 141216Z 03010KT 02/M02 A3022 RMK A01 T00151023  RH  076%=      5-min Rain = 0
KTAS 141217Z 03010KT 02/M02 A3022 RMK A01 T00151024  RH  075%=      5-min Rain = 0
KTAS 141218Z 03011KT 02/M02 A3022 RMK A01 T00151024  RH  075%=      5-min Rain = 0
KTAS 141219Z 03010KT 02/M02 A3022 RMK A01 T00161024  RH  075%=      5-min Rain = 0
KTAS 141220Z 03011KT 02/M02 A3022 RMK A01 T00161024  RH  075%=      5-min Rain = 0
KTAS 141221Z 03010KT 02/M02 A3022 RMK A01 T00171024  RH  075%=      5-min Rain = 0
KTAS 141222Z 03010KT 02/M02 A3022 RMK A01 T00161024  RH  075%=      5-min Rain = 0
KTAS 141223Z 02009KT 02/M02 A3022 RMK A01 T00161024  RH  075%=      5-min Rain = 0
KTAS 141224Z 03010KT 02/M02 A3022 RMK A01 T00151024  RH  075%=      5-min Rain = 0
KTAS 141225Z 02011KT 02/M02 A3022 RMK A01 T00161024  RH  075%=      5-min Rain = 0
KTAS 141226Z 03010KT 02/M02 A3022 RMK A01 T00161024  RH  075%=      5-min Rain = 0
KTAS 141227Z 02011KT 02/M02 A3022 RMK A01 T00161024  RH  075%=      5-min Rain = 0
KTAS 141228Z 03010KT 02/M02 A3022 RMK A01 T00161024  RH  075%=      5-min Rain = 0
KTAS 141229Z 03010KT 02/M02 A3023 RMK A01 T00171024  RH  074%=      5-min Rain = 0
KTAS 141230Z 03010KT 02/M03 A3023 RMK A01 T00161025  RH  075%=      5-min Rain = 0
KTAS 141231Z 03010KT 02/M03 A3023 RMK A01 T00161025  RH  075%=      5-min Rain = 0
KTAS 141232Z 03011KT 02/M03 A3023 RMK A01 T00151025  RH  075%=      5-min Rain = 0
KTAS 141233Z 03011KT 02/M03 A3023 RMK A01 T00161025  RH  075%=      5-min Rain = 0
KTAS 141234Z 03009KT 02/M03 A3023 RMK A01 T00151025  RH  075%=      5-min Rain = 0
KTAS 141235Z 02011KT 02/M03 A3023 RMK A01 T00151025  RH  075%=      5-min Rain = 0
KTAS 141236Z 02011KT 02/M03 A3023 RMK A01 T00151025  RH  075%=      5-min Rain = 0
KTAS 141237Z 02011KT 02/M03 A3023 RMK A01 T00151025  RH  075%=      5-min Rain = 0
KTAS 141238Z 03010KT 02/M03 A3023 RMK A01 T00161025  RH  074%=      5-min Rain = 0
KTAS 141239Z 03011KT 02/M03 A3023 RMK A01 T00161025  RH  074%=      5-min Rain = 0
KTAS 141240Z 03011KT 02/M03 A3023 RMK A01 T00151025  RH  074%=      5-min Rain = 0
KTAS 141241Z 03011KT 02/M03 A3023 RMK A01 T00161025  RH  074%=      5-min Rain = 0
KTAS 141242Z 03011KT 02/M03 A3023 RMK A01 T00161025  RH  074%=      5-min Rain = 0
KTAS 141243Z 03011KT 02/M03 A3023 RMK A01 T00161025  RH  074%=      5-min Rain = 0
KTAS 141244Z 03011KT 02/M03 A3023 RMK A01 T00161025  RH  074%=      5-min Rain = 0
KTAS 141245Z 03012KT 02/M03 A3023 RMK A01 T00161025  RH  074%=      5-min Rain = 0
KTAS 141246Z 03010KT 02/M03 A3024 RMK A01 T00171026  RH  073%=      5-min Rain = 0
KTAS 141247Z 03010KT 02/M03 A3024 RMK A01 T00171026  RH  073%=      5-min Rain = 0
KTAS 141248Z 03011KT 02/M03 A3024 RMK A01 T00161026  RH  073%=      5-min Rain = 0
KTAS 141249Z 03010KT 02/M03 A3024 RMK A01 T00161026  RH  073%=      5-min Rain = 0
KTAS 141250Z 03012G17KT 02/M03 A3024 RMK A01 T00151026  RH  074%=      5-min Rain = 0
KTAS 141251Z 03011KT 02/M03 A3024 RMK A01 T00161026  RH  073%=      5-min Rain = 0
KTAS 141252Z 03013KT 02/M03 A3024 RMK A01 T00161026  RH  073%=      5-min Rain = 0
KTAS 141253Z 03011KT 02/M03 A3024 RMK A01 T00171026  RH  073%=      5-min Rain = 0
KTAS 141254Z 03012KT 02/M03 A3024 RMK A01 T00161027  RH  073%=      5-min Rain = 0
KTAS 141255Z 03010KT 02/M03 A3024 RMK A01 T00171027  RH  073%=      5-min Rain = 0
KTAS 141256Z 03011KT 02/M03 A3024 RMK A01 T00161027  RH  073%=      5-min Rain = 0
KTAS 141257Z 03011KT 02/M03 A3024 RMK A01 T00171027  RH  073%=      5-min Rain = 0
KTAS 141258Z 03011KT 02/M03 A3024 RMK A01 T00171027  RH  073%=      5-min Rain = 0
KTAS 141259Z 03010KT 02/M03 A3024 RMK A01 T00161027  RH  073%=      5-min Rain = 0
KTAS 141300Z 03011KT 02/M03 A3024 RMK A01 T00161027  RH  073%=      5-min Rain = 0
KTAS 141301Z 03010KT 02/M03 A3025 RMK A01 T00151027  RH  073%=      5-min Rain = 0
KTAS 141302Z 03010KT 02/M03 A3025 RMK A01 T00151027  RH  073%=      5-min Rain = 0
KTAS 141303Z 03010KT 02/M03 A3025 RMK A01 T00151027  RH  074%=      5-min Rain = 0
KTAS 141304Z 03010KT 02/M03 A3025 RMK A01 T00151028  RH  073%=      5-min Rain = 0
KTAS 141305Z 03011KT 02/M03 A3025 RMK A01 T00151028  RH  073%=      5-min Rain = 0
KTAS 141306Z 03011KT 02/M03 A3025 RMK A01 T00151028  RH  073%=      5-min Rain = 0
KTAS 141307Z 03011KT 02/M03 A3025 RMK A01 T00151028  RH  073%=      5-min Rain = 0
KTAS 141308Z 03010KT 02/M03 A3025 RMK A01 T00151028  RH  073%=      5-min Rain = 0
KTAS 141309Z 03009KT 01/M03 A3025 RMK A01 T00141029  RH  073%=      5-min Rain = 0
KTAS 141310Z 03010KT 01/M03 A3025 RMK A01 T00141028  RH  073%=      5-min Rain = 0
KTAS 141311Z 03010KT 01/M03 A3025 RMK A01 T00141029  RH  073%=      5-min Rain = 0
KTAS 141312Z 03010KT 01/M03 A3025 RMK A01 T00141029  RH  073%=      5-min Rain = 0
KTAS 141313Z 03010KT 01/M03 A3026 RMK A01 T00141029  RH  073%=      5-min Rain = 0
KTAS 141314Z 03012KT 02/M03 A3026 RMK A01 T00151029  RH  073%=      5-min Rain = 0
KTAS 141315Z 03010KT 02/M03 A3026 RMK A01 T00151029  RH  073%=      5-min Rain = 0
KTAS 141316Z 02011KT 02/M03 A3026 RMK A01 T00151029  RH  073%=      5-min Rain = 0
KTAS 141317Z 02009KT 02/M03 A3026 RMK A01 T00151030  RH  072%=      5-min Rain = 0
KTAS 141318Z 02009KT 02/M03 A3026 RMK A01 T00151029  RH  073%=      5-min Rain = 0
KTAS 141319Z 02009KT 01/M03 A3026 RMK A01 T00141030  RH  073%=      5-min Rain = 0
KTAS 141320Z 02010KT 01/M03 A3026 RMK A01 T00141030  RH  073%=      5-min Rain = 0
KTAS 141321Z 02010KT 02/M03 A3026 RMK A01 T00151030  RH  072%=      5-min Rain = 0
KTAS 141322Z 02011KT 02/M03 A3026 RMK A01 T00151030  RH  072%=      5-min Rain = 0
KTAS 141323Z 02011KT 02/M03 A3027 RMK A01 T00151030  RH  072%=      5-min Rain = 0
KTAS 141324Z 02010KT 02/M03 A3027 RMK A01 T00161030  RH  072%=      5-min Rain = 0
KTAS 141325Z 02012KT 02/M03 A3027 RMK A01 T00161030  RH  071%=      5-min Rain = 0
KTAS 141326Z 02010KT 02/M03 A3027 RMK A01 T00171030  RH  071%=      5-min Rain = 0
KTAS 141327Z 02011KT 02/M03 A3027 RMK A01 T00171031  RH  071%=      5-min Rain = 0
KTAS 141328Z 03009KT 02/M03 A3027 RMK A01 T00171031  RH  071%=      5-min Rain = 0
KTAS 141329Z 02010KT 02/M03 A3027 RMK A01 T00171031  RH  071%=      5-min Rain = 0
KTAS 141330Z 03011KT 02/M03 A3027 RMK A01 T00171031  RH  071%=      5-min Rain = 0
KTAS 141331Z 03010KT 02/M03 A3027 RMK A01 T00181031  RH  070%=      5-min Rain = 0
KTAS 141332Z 03010KT 02/M03 A3027 RMK A01 T00171031  RH  070%=      5-min Rain = 0
KTAS 141333Z 03013KT 02/M03 A3027 RMK A01 T00181031  RH  070%=      5-min Rain = 0
KTAS 141334Z 03011KT 02/M03 A3027 RMK A01 T00181032  RH  069%=      5-min Rain = 0
KTAS 141335Z 02011KT 02/M03 A3027 RMK A01 T00191032  RH  069%=      5-min Rain = 0
KTAS 141336Z 03010KT 02/M03 A3028 RMK A01 T00191032  RH  069%=      5-min Rain = 0
KTAS 141337Z 03012KT 02/M03 A3028 RMK A01 T00191031  RH  070%=      5-min Rain = 0
KTAS 141338Z 03012KT 02/M03 A3028 RMK A01 T00191032  RH  069%=      5-min Rain = 0
KTAS 141339Z 03012KT 02/M03 A3028 RMK A01 T00201032  RH  069%=      5-min Rain = 0
KTAS 141340Z 03011KT 02/M03 A3028 RMK A01 T00201032  RH  069%=      5-min Rain = 0
KTAS 141341Z 03012KT 02/M03 A3028 RMK A01 T00201032  RH  068%=      5-min Rain = 0
KTAS 141342Z 03011KT 02/M03 A3028 RMK A01 T00211032  RH  068%=      5-min Rain = 0
KTAS 141343Z 03011KT 02/M03 A3028 RMK A01 T00211032  RH  068%=      5-min Rain = 0
KTAS 141344Z 03012KT 02/M03 A3028 RMK A01 T00211033  RH  068%=      5-min Rain = 0
KTAS 141345Z 03011KT 02/M03 A3028 RMK A01 T00211032  RH  068%=      5-min Rain = 0
KTAS 141346Z 03011KT 02/M03 A3028 RMK A01 T00211032  RH  068%=      5-min Rain = 0
KTAS 141347Z 03011KT 02/M03 A3028 RMK A01 T00211032  RH  068%=      5-min Rain = 0
KTAS 141348Z 03012KT 02/M03 A3028 RMK A01 T00211032  RH  068%=      5-min Rain = 0
KTAS 141349Z 03011KT 02/M03 A3029 RMK A01 T00211032  RH  068%=      5-min Rain = 0
KTAS 141350Z 03013KT 02/M03 A3029 RMK A01 T00221032  RH  068%=      5-min Rain = 0
KTAS 141351Z 03012KT 02/M03 A3029 RMK A01 T00221032  RH  067%=      5-min Rain = 0
KTAS 141352Z 03011KT 02/M03 A3029 RMK A01 T00231032  RH  067%=      5-min Rain = 0
KTAS 141353Z 03011KT 02/M03 A3029 RMK A01 T00231033  RH  067%=      5-min Rain = 0
KTAS 141354Z 03010KT 02/M03 A3029 RMK A01 T00241032  RH  067%=      5-min Rain = 0
KTAS 141355Z 04010KT 02/M03 A3029 RMK A01 T00241032  RH  067%=      5-min Rain = 0
KTAS 141356Z 03010KT 02/M03 A3029 RMK A01 T00241032  RH  067%=      5-min Rain = 0
KTAS 141357Z 03011KT 02/M03 A3029 RMK A01 T00241032  RH  066%=      5-min Rain = 0
KTAS 141358Z 03010KT 03/M03 A3029 RMK A01 T00251032  RH  066%=      5-min Rain = 0
KTAS 141359Z 03013KT 03/M03 A3029 RMK A01 T00251032  RH  066%=      5-min Rain = 0
KTAS 141400Z 03012KT 03/M03 A3029 RMK A01 T00251032  RH  066%=      5-min Rain = 0
KTAS 141401Z 03010KT 03/M03 A3029 RMK A01 T00251033  RH  066%=      5-min Rain = 0
KTAS 141402Z 03011KT 03/M03 A3029 RMK A01 T00261032  RH  066%=      5-min Rain = 0
KTAS 141403Z 03010KT 03/M03 A303 RMK A01 T00261032  RH  066%=      5-min Rain = 0
KTAS 141404Z 03012KT 03/M03 A303 RMK A01 T00261032  RH  066%=      5-min Rain = 0
KTAS 141405Z 03009KT 03/M03 A303 RMK A01 T00261032  RH  065%=      5-min Rain = 0
KTAS 141406Z 04012KT 03/M03 A303 RMK A01 T00271031  RH  066%=      5-min Rain = 0
KTAS 141407Z 03012KT 03/M03 A303 RMK A01 T00271032  RH  066%=      5-min Rain = 0
KTAS 141408Z 04011KT 03/M03 A303 RMK A01 T00261032  RH  065%=      5-min Rain = 0
KTAS 141409Z 03008KT 03/M03 A303 RMK A01 T00271031  RH  066%=      5-min Rain = 0
KTAS 141410Z 03010KT 03/M03 A303 RMK A01 T00271030  RH  066%=      5-min Rain = 0
KTAS 141411Z 03012KT 03/M03 A303 RMK A01 T00271030  RH  066%=      5-min Rain = 0
KTAS 141412Z 03011KT 03/M03 A303 RMK A01 T00281031  RH  065%=      5-min Rain = 0
KTAS 141413Z 03011KT 03/M03 A303 RMK A01 T00281031  RH  065%=      5-min Rain = 0
KTAS 141414Z 03010KT 03/M03 A303 RMK A01 T00281031  RH  065%=      5-min Rain = 0
KTAS 141415Z 03013KT 03/M03 A303 RMK A01 T00291031  RH  065%=      5-min Rain = 0
KTAS 141416Z 03011KT 03/M03 A303 RMK A01 T00291031  RH  065%=      5-min Rain = 0
KTAS 141417Z 03011KT 03/M03 A3031 RMK A01 T00291030  RH  065%=      5-min Rain = 0
KTAS 141418Z 03014KT 03/M03 A3031 RMK A01 T00301030  RH  065%=      5-min Rain = 0
KTAS 141419Z 03011KT 03/M03 A3031 RMK A01 T00301031  RH  064%=      5-min Rain = 0
KTAS 141420Z 03011KT 03/M03 A3031 RMK A01 T00301030  RH  065%=      5-min Rain = 0
KTAS 141421Z 04010KT 03/M03 A3031 RMK A01 T00301030  RH  064%=      5-min Rain = 0
KTAS 141422Z 03011KT 03/M03 A3031 RMK A01 T00311029  RH  065%=      5-min Rain = 0
KTAS 141423Z 03012KT 03/M03 A3031 RMK A01 T00321029  RH  064%=      5-min Rain = 0
KTAS 141424Z 03013KT 03/M03 A3031 RMK A01 T00321030  RH  064%=      5-min Rain = 0
KTAS 141425Z 03013KT 03/M03 A3032 RMK A01 T00321030  RH  064%=      5-min Rain = 0
KTAS 141426Z 03010KT 03/M03 A3032 RMK A01 T00331029  RH  064%=      5-min Rain = 0
KTAS 141427Z 03013KT 03/M03 A3032 RMK A01 T00331028  RH  064%=      5-min Rain = 0
KTAS 141428Z 03012KT 03/M03 A3032 RMK A01 T00341028  RH  064%=      5-min Rain = 0
KTAS 141429Z 03011KT 03/M03 A3032 RMK A01 T00341027  RH  064%=      5-min Rain = 0
KTAS 141430Z 03010KT 04/M03 A3032 RMK A01 T00351027  RH  064%=      5-min Rain = 0
KTAS 141431Z 03012KT 04/M03 A3032 RMK A01 T00361026  RH  064%=      5-min Rain = 0
KTAS 141432Z 03012KT 04/M03 A3032 RMK A01 T00361027  RH  064%=      5-min Rain = 0
KTAS 141433Z 03012KT 04/M03 A3032 RMK A01 T00361026  RH  064%=      5-min Rain = 0
KTAS 141434Z 03011KT 04/M03 A3032 RMK A01 T00371026  RH  064%=      5-min Rain = 0
KTAS 141435Z 03012KT 04/M03 A3032 RMK A01 T00371025  RH  064%=      5-min Rain = 0
KTAS 141436Z 03013G18KT 04/M03 A3032 RMK A01 T00381025  RH  064%=      5-min Rain = 0
KTAS 141437Z 04011KT 04/M03 A3032 RMK A01 T00381025  RH  063%=      5-min Rain = 0
KTAS 141438Z 04012KT 04/M02 A3032 RMK A01 T00391024  RH  064%=      5-min Rain = 0
KTAS 141439Z 03010KT 04/M03 A3032 RMK A01 T00391025  RH  063%=      5-min Rain = 0
KTAS 141440Z 04010KT 04/M02 A3032 RMK A01 T00391024  RH  063%=      5-min Rain = 0
KTAS 141441Z 04012KT 04/M02 A3032 RMK A01 T00401024  RH  063%=      5-min Rain = 0
KTAS 141442Z 03010KT 04/M02 A3032 RMK A01 T00401024  RH  063%=      5-min Rain = 0
KTAS 141443Z 04012KT 04/M02 A3033 RMK A01 T00401024  RH  063%=      5-min Rain = 0
KTAS 141444Z 03014KT 04/M02 A3033 RMK A01 T00401023  RH  063%=      5-min Rain = 0
KTAS 141445Z 04013KT 04/M02 A3033 RMK A01 T00401024  RH  063%=      5-min Rain = 0
KTAS 141446Z 04012KT 04/M02 A3033 RMK A01 T00401023  RH  064%=      5-min Rain = 0
KTAS 141447Z 04011KT 04/M02 A3033 RMK A01 T00401022  RH  064%=      5-min Rain = 0
KTAS 141448Z 04013KT 04/M02 A3033 RMK A01 T00401022  RH  064%=      5-min Rain = 0
KTAS 141449Z 03012KT 04/M02 A3033 RMK A01 T00411021  RH  064%=      5-min Rain = 0
KTAS 141450Z 03013KT 04/M02 A3033 RMK A01 T00411021  RH  064%=      5-min Rain = 0
KTAS 141451Z 04012KT 04/M02 A3033 RMK A01 T00421020  RH  064%=      5-min Rain = 0
KTAS 141452Z 04013KT 04/M02 A3033 RMK A01 T00431020  RH  064%=      5-min Rain = 0
KTAS 141453Z 03013KT 04/M02 A3033 RMK A01 T00421020  RH  064%=      5-min Rain = 0
KTAS 141454Z 04011KT 04/M02 A3034 RMK A01 T00421019  RH  064%=      5-min Rain = 0
KTAS 141455Z 03013KT 04/M02 A3034 RMK A01 T00441017  RH  064%=      5-min Rain = 0
KTAS 141456Z 04012KT 04/M02 A3034 RMK A01 T00441019  RH  064%=      5-min Rain = 0
KTAS 141457Z 04012KT 04/M02 A3034 RMK A01 T00441019  RH  064%=      5-min Rain = 0
KTAS 141458Z 04014KT 04/M02 A3034 RMK A01 T00441017  RH  064%=      5-min Rain = 0
KTAS 141459Z 04012KT 04/M02 A3034 RMK A01 T00441018  RH  064%=      5-min Rain = 0
KTAS 141500Z 04012KT 05/M02 A3034 RMK A01 T00451016  RH  064%=      5-min Rain = 0
KTAS 141501Z 03014KT 05/M02 A3034 RMK A01 T00461016  RH  064%=      5-min Rain = 0
KTAS 141502Z 03014KT 05/M02 A3034 RMK A01 T00461016  RH  064%=      5-min Rain = 0
KTAS 141503Z 04014KT 05/M02 A3034 RMK A01 T00461015  RH  065%=      5-min Rain = 0
KTAS 141504Z 04013KT 05/M02 A3034 RMK A01 T00461016  RH  064%=      5-min Rain = 0
KTAS 141505Z 04011KT 05/M02 A3034 RMK A01 T00461015  RH  065%=      5-min Rain = 0
KTAS 141506Z 04011KT 05/M01 A3034 RMK A01 T00481012  RH  065%=      5-min Rain = 0
KTAS 141507Z 04013KT 05/M01 A3035 RMK A01 T00511010  RH  065%=      5-min Rain = 0
KTAS 141508Z 04014KT 05/M01 A3034 RMK A01 T00501012  RH  064%=      5-min Rain = 0
KTAS 141509Z 04014KT 05/M01 A3035 RMK A01 T00501013  RH  064%=      5-min Rain = 0
KTAS 141510Z 04015KT 05/M01 A3035 RMK A01 T00491013  RH  064%=      5-min Rain = 0
KTAS 141511Z 04015KT 05/M01 A3035 RMK A01 T00481013  RH  064%=      5-min Rain = 0
KTAS 141512Z 03014KT 05/M01 A3035 RMK A01 T00491012  RH  065%=      5-min Rain = 0
KTAS 141513Z 03015KT 05/M01 A3035 RMK A01 T00501011  RH  065%=      5-min Rain = 0
KTAS 141514Z 03013KT 05/M01 A3035 RMK A01 T00501011  RH  065%=      5-min Rain = 0
KTAS 141515Z 04014KT 05/M01 A3035 RMK A01 T00521009  RH  065%=      5-min Rain = 0
KTAS 141516Z 03014KT 05/M01 A3035 RMK A01 T00531009  RH  065%=      5-min Rain = 0
KTAS 141517Z 04016KT 05/M01 A3035 RMK A01 T00541008  RH  064%=      5-min Rain = 0
KTAS 141518Z 04014KT 05/M01 A3035 RMK A01 T00531009  RH  064%=      5-min Rain = 0
KTAS 141519Z 04016KT 05/M01 A3035 RMK A01 T00541008  RH  065%=      5-min Rain = 0
KTAS 141520Z 04014KT 05/M01 A3035 RMK A01 T00531009  RH  064%=      5-min Rain = 0
KTAS 141521Z 04015KT 05/M01 A3035 RMK A01 T00541008  RH  064%=      5-min Rain = 0
KTAS 141522Z 04016G21KT 05/M01 A3035 RMK A01 T00531008  RH  064%=      5-min Rain = 0
KTAS 141523Z 05016KT 05/M01 A3035 RMK A01 T00531009  RH  064%=      5-min Rain = 0
KTAS 141524Z 04015KT 05/M01 A3035 RMK A01 T00521009  RH  065%=      5-min Rain = 0
KTAS 141525Z 05013G19KT 05/M01 A3035 RMK A01 T00531007  RH  065%=      5-min Rain = 0
KTAS 141526Z 05015KT 05/M01 A3035 RMK A01 T00541007  RH  065%=      5-min Rain = 0
KTAS 141527Z 05014KT 06/M01 A3035 RMK A01 T00551006  RH  065%=      5-min Rain = 0
KTAS 141528Z 04014G19KT 06/M01 A3035 RMK A01 T00571005  RH  065%=      5-min Rain = 0
KTAS 141529Z 05013KT 06/M01 A3035 RMK A01 T00571006  RH  064%=      5-min Rain = 0
KTAS 141530Z 04016KT 06/M00 A3035 RMK A01 T00581004  RH  064%=      5-min Rain = 0
KTAS 141531Z 04016KT 06/M01 A3035 RMK A01 T00571005  RH  064%=      5-min Rain = 0
KTAS 141532Z 04015KT 06/M01 A3035 RMK A01 T00571005  RH  064%=      5-min Rain = 0
KTAS 141533Z 04014KT 06/M00 A3035 RMK A01 T00591004  RH  064%=      5-min Rain = 0
KTAS 141534Z 04013KT 06/M00 A3035 RMK A01 T00591004  RH  064%=      5-min Rain = 0
KTAS 141535Z 04015KT 06/M00 A3035 RMK A01 T00601003  RH  064%=      5-min Rain = 0
KTAS 141536Z 06014KT 06/M00 A3035 RMK A01 T00611003  RH  064%=      5-min Rain = 0
KTAS 141537Z 05014KT 06/M00 A3036 RMK A01 T00611003  RH  063%=      5-min Rain = 0
KTAS 141538Z 05012KT 06/M00 A3036 RMK A01 T00621002  RH  063%=      5-min Rain = 0
KTAS 141539Z 04013G18KT 06/M00 A3036 RMK A01 T00631002  RH  063%=      5-min Rain = 0
KTAS 141540Z 04014KT 06/M00 A3036 RMK A01 T00631002  RH  063%=      5-min Rain = 0
KTAS 141541Z 05012KT 06/M00 A3036 RMK A01 T00631002  RH  063%=      5-min Rain = 0
KTAS 141542Z 05012KT 06/M00 A3036 RMK A01 T00641001  RH  063%=      5-min Rain = 0
KTAS 141543Z 05014KT 07/M00 A3036 RMK A01 T00661001  RH  063%=      5-min Rain = 0
KTAS 141544Z 05015KT 06/M00 A3035 RMK A01 T00641003  RH  062%=      5-min Rain = 0
KTAS 141545Z 05016KT 06/M00 A3036 RMK A01 T00631003  RH  063%=      5-min Rain = 0
KTAS 141546Z 04014KT 06/M00 A3036 RMK A01 T00631003  RH  063%=      5-min Rain = 0
KTAS 141547Z 04012G20KT 06/M00 A3036 RMK A01 T00641002  RH  063%=      5-min Rain = 0
KTAS 141548Z 05016KT 07/M00 A3035 RMK A01 T00651001  RH  063%=      5-min Rain = 0
KTAS 141549Z 04015KT 07/M00 A3036 RMK A01 T00651002  RH  062%=      5-min Rain = 0
KTAS 141550Z 06014KT 07/00 A3036 RMK A01 T006700-0  RH  062%=      5-min Rain = 0
KTAS 141551Z 05017G22KT 07/M00 A3036 RMK A01 T00681001  RH  062%=      5-min Rain = 0
KTAS 141552Z 05019KT 07/M00 A3036 RMK A01 T00661003  RH  061%=      5-min Rain = 0
KTAS 141553Z 05018G23KT 07/M00 A3036 RMK A01 T00651004  RH  061%=      5-min Rain = 0
KTAS 141554Z 05014KT 07/M00 A3036 RMK A01 T00651003  RH  062%=      5-min Rain = 0
KTAS 141555Z 05016KT 07/M00 A3036 RMK A01 T00661002  RH  062%=      5-min Rain = 0
KTAS 141556Z 05014KT 07/M00 A3036 RMK A01 T00661002  RH  062%=      5-min Rain = 0
KTAS 141557Z 05012KT 07/M00 A3036 RMK A01 T00671001  RH  062%=      5-min Rain = 0
KTAS 141558Z 05015KT 07/00 A3036 RMK A01 T00690001  RH  062%=      5-min Rain = 0
KTAS 141559Z 06014KT 07/00 A3036 RMK A01 T007000-0  RH  061%=      5-min Rain = 0
KTAS 141600Z 05014KT 07/00 A3036 RMK A01 T00710000  RH  061%=      5-min Rain = 0
KTAS 141601Z 05017G24KT 07/00 A3036 RMK A01 T00720000  RH  060%=      5-min Rain = 0
KTAS 141602Z 04020KT 07/M00 A3036 RMK A01 T00701002  RH  060%=      5-min Rain = 0
KTAS 141603Z 05019KT 07/M00 A3036 RMK A01 T00681003  RH  060%=      5-min Rain = 0
KTAS 141604Z 05017KT 07/M00 A3036 RMK A01 T00681002  RH  061%=      5-min Rain = 0
KTAS 141605Z 05014G19KT 07/M00 A3036 RMK A01 T00691002  RH  061%=      5-min Rain = 0
KTAS 141606Z 04015KT 07/M00 A3036 RMK A01 T00701001  RH  061%=      5-min Rain = 0
KTAS 141607Z 05014KT 07/M00 A3036 RMK A01 T00691002  RH  060%=      5-min Rain = 0
KTAS 141608Z 04014KT 07/00 A3036 RMK A01 T00710000  RH  061%=      5-min Rain = 0
KTAS 141609Z 04016KT 07/00 A3037 RMK A01 T007100-0  RH  060%=      5-min Rain = 0
KTAS 141610Z 04016KT 07/M00 A3037 RMK A01 T00701002  RH  060%=      5-min Rain = 0
KTAS 141611Z 04019KT 07/M00 A3037 RMK A01 T00711001  RH  060%=      5-min Rain = 0
KTAS 141612Z 04017KT 07/M00 A3037 RMK A01 T00701003  RH  060%=      5-min Rain = 0
KTAS 141613Z 05017KT 07/M00 A3037 RMK A01 T00691003  RH  060%=      5-min Rain = 0
KTAS 141614Z 04017KT 07/M00 A3037 RMK A01 T00701001  RH  061%=      5-min Rain = 0
KTAS 141615Z 05018KT 07/M00 A3037 RMK A01 T00711002  RH  060%=      5-min Rain = 0
KTAS 141616Z 05015KT 07/M00 A3037 RMK A01 T00711002  RH  060%=      5-min Rain = 0
KTAS 141617Z 04016KT 07/M00 A3037 RMK A01 T00701002  RH  060%=      5-min Rain = 0
KTAS 141618Z 04016G21KT 07/00 A3037 RMK A01 T007100-0  RH  060%=      5-min Rain = 0
KTAS 141619Z 04016G21KT 07/M00 A3037 RMK A01 T00731001  RH  059%=      5-min Rain = 0
KTAS 141620Z 04018KT 07/M00 A3038 RMK A01 T00731002  RH  059%=      5-min Rain = 0
KTAS 141621Z 04016KT 07/M00 A3038 RMK A01 T00721003  RH  059%=      5-min Rain = 0
KTAS 141622Z 04015KT 07/M00 A3038 RMK A01 T00741001  RH  059%=      5-min Rain = 0
KTAS 141623Z 04015G21KT 08/M00 A3037 RMK A01 T00751001  RH  059%=      5-min Rain = 0
KTAS 141624Z 06017G22KT 08/M00 A3037 RMK A01 T00751002  RH  058%=      5-min Rain = 0
KTAS 141625Z 06015G20KT 08/M00 A3038 RMK A01 T00751002  RH  058%=      5-min Rain = 0
KTAS 141626Z 04013KT 08/00 A3038 RMK A01 T00780001  RH  058%=      5-min Rain = 0
KTAS 141627Z 04013G19KT 08/00 A3038 RMK A01 T00810002  RH  058%=      5-min Rain = 0
KTAS 141628Z 04017KT 08/M00 A3038 RMK A01 T00811001  RH  057%=      5-min Rain = 0
KTAS 141629Z 04017KT 08/M00 A3038 RMK A01 T00781002  RH  057%=      5-min Rain = 0
KTAS 141630Z 04019KT 08/M00 A3038 RMK A01 T00771002  RH  057%=      5-min Rain = 0
KTAS 141631Z 04016G22KT 08/M00 A3038 RMK A01 T00771001  RH  058%=      5-min Rain = 0
KTAS 141632Z 04017KT 08/M00 A3038 RMK A01 T00781001  RH  057%=      5-min Rain = 0
KTAS 141633Z 04016KT 08/M00 A3038 RMK A01 T00781002  RH  057%=      5-min Rain = 0
KTAS 141634Z 05017KT 08/M00 A3038 RMK A01 T00781002  RH  057%=      5-min Rain = 0
KTAS 141635Z 05013KT 08/M00 A3038 RMK A01 T00781002  RH  057%=      5-min Rain = 0
KTAS 141636Z 04013G22KT 08/00 A3038 RMK A01 T00800000  RH  057%=      5-min Rain = 0
KTAS 141637Z 04018G23KT 08/00 A3038 RMK A01 T008200-0  RH  056%=      5-min Rain = 0
KTAS 141638Z 04016KT 08/M00 A3038 RMK A01 T00801004  RH  055%=      5-min Rain = 0
KTAS 141639Z 03018KT 08/M00 A3038 RMK A01 T00811002  RH  056%=      5-min Rain = 0
KTAS 141640Z 04017KT 08/M00 A3038 RMK A01 T00801002  RH  056%=      5-min Rain = 0
KTAS 141641Z 05017KT 08/M00 A3038 RMK A01 T00801004  RH  055%=      5-min Rain = 0
KTAS 141642Z 05015KT 08/M00 A3038 RMK A01 T00791004  RH  056%=      5-min Rain = 0
KTAS 141643Z 05017KT 08/M00 A3038 RMK A01 T00811001  RH  056%=      5-min Rain = 0
KTAS 141644Z 04014G19KT 08/00 A3038 RMK A01 T008300-0  RH  056%=      5-min Rain = 0
KTAS 141645Z 03017KT 08/M00 A3038 RMK A01 T00841001  RH  055%=      5-min Rain = 0
KTAS 141646Z 03016KT 08/M00 A3038 RMK A01 T00831003  RH  055%=      5-min Rain = 0
KTAS 141647Z 04015KT 08/M00 A3038 RMK A01 T00841001  RH  055%=      5-min Rain = 0
KTAS 141648Z 04017KT 08/M00 A3039 RMK A01 T00841002  RH  055%=      5-min Rain = 0
KTAS 141649Z 04015KT 08/M00 A3038 RMK A01 T00841002  RH  055%=      5-min Rain = 0
KTAS 141650Z 05016KT 09/M00 A3038 RMK A01 T00851001  RH  055%=      5-min Rain = 0
KTAS 141651Z 04017KT 09/M00 A3038 RMK A01 T00851003  RH  054%=      5-min Rain = 0
KTAS 141652Z 04017KT 09/M00 A3039 RMK A01 T00851003  RH  054%=      5-min Rain = 0
KTAS 141653Z 03018KT 08/M00 A3039 RMK A01 T00841003  RH  054%=      5-min Rain = 0
KTAS 141654Z 03018KT 09/M00 A3039 RMK A01 T00861001  RH  054%=      5-min Rain = 0
KTAS 141655Z 05016KT 09/M00 A3038 RMK A01 T00861002  RH  054%=      5-min Rain = 0
KTAS 141656Z 05017KT 09/M00 A3038 RMK A01 T00861003  RH  053%=      5-min Rain = 0
KTAS 141657Z 04015KT 09/M00 A3039 RMK A01 T00861003  RH  054%=      5-min Rain = 0
KTAS 141658Z 04015G20KT 09/M00 A3039 RMK A01 T00871001  RH  054%=      5-min Rain = 0
KTAS 141659Z 04014KT 09/M00 A3039 RMK A01 T00871002  RH  054%=      5-min Rain = 0
KTAS 141700Z 04014KT 09/M00 A3038 RMK A01 T00871001  RH  054%=      5-min Rain = 0
KTAS 141701Z 05016KT 09/M00 A3038 RMK A01 T00881001  RH  054%=      5-min Rain = 0
KTAS 141702Z 05015KT 09/00 A3038 RMK A01 T008900-0  RH  054%=      5-min Rain = 0
KTAS 141703Z 05015KT 09/M00 A3038 RMK A01 T00871003  RH  053%=      5-min Rain = 0
KTAS 141704Z 05016KT 09/M00 A3039 RMK A01 T00891002  RH  053%=      5-min Rain = 0
KTAS 141705Z 04017KT 09/M00 A3038 RMK A01 T00891002  RH  053%=      5-min Rain = 0
KTAS 141706Z 05013KT 09/M00 A3039 RMK A01 T00881001  RH  054%=      5-min Rain = 0
KTAS 141707Z 04013G18KT 09/00 A3039 RMK A01 T00910001  RH  053%=      5-min Rain = 0
KTAS 141708Z 05014KT 09/00 A3039 RMK A01 T00930001  RH  052%=      5-min Rain = 0
KTAS 141709Z 05017G22KT 09/M00 A3038 RMK A01 T00921004  RH  051%=      5-min Rain = 0
KTAS 141710Z 04018KT 09/M01 A3039 RMK A01 T00901005  RH  052%=      5-min Rain = 0
KTAS 141711Z 05015KT 09/M00 A3039 RMK A01 T00881004  RH  052%=      5-min Rain = 0
KTAS 141712Z 06011G16KT 09/M00 A3039 RMK A01 T00871004  RH  053%=      5-min Rain = 0
KTAS 141713Z 05010KT 09/M00 A3039 RMK A01 T00901001  RH  053%=      5-min Rain = 0
KTAS 141714Z 04012KT 09/00 A3039 RMK A01 T009300-0  RH  052%=      5-min Rain = 0
KTAS 141715Z 05012KT 09/M00 A3039 RMK A01 T00931001  RH  052%=      5-min Rain = 0
KTAS 141716Z 04013KT 10/00 A3039 RMK A01 T00960001  RH  051%=      5-min Rain = 0
KTAS 141717Z 04014KT 10/00 A3039 RMK A01 T00970000  RH  051%=      5-min Rain = 0
KTAS 141718Z 04015G20KT 10/M00 A3039 RMK A01 T00951004  RH  050%=      5-min Rain = 0
KTAS 141719Z 05013KT 10/M00 A3039 RMK A01 T00951002  RH  051%=      5-min Rain = 0
KTAS 141720Z 04012KT 10/M00 A3039 RMK A01 T00951002  RH  051%=      5-min Rain = 0
KTAS 141721Z 03018KT 10/M00 A3039 RMK A01 T00951003  RH  050%=      5-min Rain = 0
KTAS 141722Z 05017KT 09/M01 A3039 RMK A01 T00941005  RH  050%=      5-min Rain = 0
KTAS 141723Z 04014G19KT 09/M01 A3039 RMK A01 T00911007  RH  050%=      5-min Rain = 0
KTAS 141724Z 04016G21KT 09/M00 A3039 RMK A01 T00921004  RH  051%=      5-min Rain = 0
KTAS 141725Z 05016KT 09/M01 A3039 RMK A01 T00931005  RH  050%=      5-min Rain = 0
KTAS 141726Z 03017KT 09/M01 A3039 RMK A01 T00931005  RH  050%=      5-min Rain = 0
KTAS 141727Z 03016KT 09/M01 A3039 RMK A01 T00931007  RH  050%=      5-min Rain = 0
KTAS 141728Z 05015G20KT 09/M01 A3039 RMK A01 T00931006  RH  050%=      5-min Rain = 0
KTAS 141729Z 05016KT 09/M01 A3039 RMK A01 T00931007  RH  049%=      5-min Rain = 0
KTAS 141730Z 05014KT 09/M01 A3039 RMK A01 T00911009  RH  050%=      5-min Rain = 0
KTAS 141731Z 05014KT 09/M01 A3039 RMK A01 T00921007  RH  050%=      5-min Rain = 0
KTAS 141732Z 04019KT 09/M01 A3039 RMK A01 T00931008  RH  049%=      5-min Rain = 0
KTAS 141733Z 04018KT 09/M01 A3039 RMK A01 T00911010  RH  049%=      5-min Rain = 0
KTAS 141734Z 05017G22KT 09/M01 A3039 RMK A01 T00901010  RH  050%=      5-min Rain = 0
KTAS 141735Z 05016KT 09/M01 A3039 RMK A01 T00901011  RH  049%=      5-min Rain = 0
KTAS 141736Z 04018KT 09/M01 A3039 RMK A01 T00911009  RH  049%=      5-min Rain = 0
KTAS 141737Z 04015G20KT 09/M01 A3039 RMK A01 T00911010  RH  049%=      5-min Rain = 0
KTAS 141738Z 04014KT 09/M01 A3039 RMK A01 T00901011  RH  049%=      5-min Rain = 0
KTAS 141739Z 05014KT 09/M01 A3039 RMK A01 T00911010  RH  049%=      5-min Rain = 0
KTAS 141740Z 05017G22KT 09/M01 A3039 RMK A01 T00921008  RH  050%=      5-min Rain = 0
KTAS 141741Z 05014KT 09/M01 A3039 RMK A01 T00921011  RH  048%=      5-min Rain = 0
KTAS 141742Z 05016KT 10/M01 A3039 RMK A01 T00951008  RH  048%=      5-min Rain = 0
KTAS 141743Z 06015KT 10/M01 A3039 RMK A01 T00951012  RH  047%=      5-min Rain = 0
KTAS 141744Z 04013KT 10/M01 A3039 RMK A01 T00971009  RH  048%=      5-min Rain = 0
KTAS 141745Z 05014KT 10/M01 A3039 RMK A01 T00971011  RH  047%=      5-min Rain = 0
KTAS 141746Z 06012KT 10/M01 A3039 RMK A01 T00961011  RH  047%=      5-min Rain = 0
KTAS 141747Z 07013KT 10/M01 A3039 RMK A01 T00961011  RH  047%=      5-min Rain = 0
KTAS 141748Z 05017KT 10/M01 A3039 RMK A01 T00961011  RH  047%=      5-min Rain = 0
KTAS 141749Z 05015KT 10/M01 A3039 RMK A01 T00961010  RH  048%=      5-min Rain = 0
KTAS 141750Z 06013KT 10/M01 A3039 RMK A01 T00971008  RH  048%=      5-min Rain = 0
KTAS 141751Z 06015KT 10/M01 A3039 RMK A01 T00981010  RH  047%=      5-min Rain = 0
KTAS 141752Z 06012KT 10/M01 A3039 RMK A01 T00961011  RH  047%=      5-min Rain = 0
KTAS 141753Z 05012KT 10/M01 A3039 RMK A01 T00991008  RH  047%=      5-min Rain = 0
KTAS 141754Z 05014G19KT 10/M01 A3039 RMK A01 T01021007  RH  047%=      5-min Rain = 0
KTAS 141755Z 04016KT 10/M01 A3039 RMK A01 T01011010  RH  046%=      5-min Rain = 0
KTAS 141756Z 04012KT 10/M01 A3039 RMK A01 T00981011  RH  046%=      5-min Rain = 0
KTAS 141757Z 04012KT 10/M01 A3038 RMK A01 T00961012  RH  047%=      5-min Rain = 0
KTAS 141758Z 07011KT 10/M01 A3039 RMK A01 T00981009  RH  047%=      5-min Rain = 0
KTAS 141759Z 07014KT 10/M01 A3039 RMK A01 T01021009  RH  046%=      5-min Rain = 0
KTAS 141800Z 07012KT 10/M01 A3039 RMK A01 T01021011  RH  045%=      5-min Rain = 0
KTAS 141801Z 05011KT 10/M01 A3039 RMK A01 T01041010  RH  045%=      5-min Rain = 0
KTAS 141802Z 05011KT 10/M01 A3039 RMK A01 T01041010  RH  045%=      5-min Rain = 0
KTAS 141803Z 06011KT 10/M01 A3039 RMK A01 T01041009  RH  045%=      5-min Rain = 0
KTAS 141804Z 04014KT 10/M01 A3039 RMK A01 T01041011  RH  045%=      5-min Rain = 0
KTAS 141805Z 04014KT 10/M01 A3039 RMK A01 T01031010  RH  046%=      5-min Rain = 0
KTAS 141806Z 05012KT 10/M01 A3039 RMK A01 T01021010  RH  046%=      5-min Rain = 0
KTAS 141807Z 04012KT 10/M01 A3039 RMK A01 T01001011  RH  046%=      5-min Rain = 0
KTAS 141808Z 05014KT 10/M01 A3039 RMK A01 T00991011  RH  046%=      5-min Rain = 0
KTAS 141809Z 06013KT 10/M01 A3039 RMK A01 T01001011  RH  046%=      5-min Rain = 0
KTAS 141810Z 07015KT 10/M01 A3038 RMK A01 T01001012  RH  046%=      5-min Rain = 0
KTAS 141811Z 05015KT 10/M01 A3039 RMK A01 T01021011  RH  045%=      5-min Rain = 0
KTAS 141812Z 05015KT 10/M01 A3038 RMK A01 T01001013  RH  045%=      5-min Rain = 0
KTAS 141813Z 06011KT 10/M01 A3039 RMK A01 T01021010  RH  046%=      5-min Rain = 0
KTAS 141814Z 05010KT 11/M01 A3038 RMK A01 T01061007  RH  046%=      5-min Rain = 0
KTAS 141815Z 04013KT 11/M01 A3038 RMK A01 T01101006  RH  045%=      5-min Rain = 0
KTAS 141816Z 05013KT 11/M01 A3038 RMK A01 T01091009  RH  044%=      5-min Rain = 0
KTAS 141817Z 06016KT 11/M01 A3038 RMK A01 T01061011  RH  044%=      5-min Rain = 0
KTAS 141818Z 06014KT 10/M01 A3038 RMK A01 T01031013  RH  045%=      5-min Rain = 0
KTAS 141819Z 07016KT 10/M01 A3038 RMK A01 T01021013  RH  045%=      5-min Rain = 0
KTAS 141820Z 07018KT 10/M02 A3038 RMK A01 T01011015  RH  044%=      5-min Rain = 0
KTAS 141821Z 07017KT 10/M02 A3038 RMK A01 T00991015  RH  045%=      5-min Rain = 0
KTAS 141822Z 06017KT 10/M01 A3038 RMK A01 T01011014  RH  045%=      5-min Rain = 0
KTAS 141823Z 07016KT 10/M01 A3038 RMK A01 T00991014  RH  045%=      5-min Rain = 0
KTAS 141824Z 07016KT 10/M01 A3038 RMK A01 T00981014  RH  045%=      5-min Rain = 0
KTAS 141825Z 07012G18KT 10/M01 A3038 RMK A01 T00991013  RH  046%=      5-min Rain = 0
KTAS 141826Z 05013KT 10/M01 A3038 RMK A01 T01001012  RH  046%=      5-min Rain = 0
KTAS 141827Z 06015KT 10/M01 A3038 RMK A01 T00991013  RH  046%=      5-min Rain = 0
KTAS 141828Z 06011KT 10/M01 A3038 RMK A01 T00981012  RH  046%=      5-min Rain = 0
KTAS 141829Z 06014KT 10/M01 A3038 RMK A01 T01011009  RH  046%=      5-min Rain = 0
KTAS 141830Z 06014KT 10/M01 A3038 RMK A01 T01021012  RH  045%=      5-min Rain = 0
KTAS 141831Z 05016KT 10/M01 A3038 RMK A01 T01001013  RH  045%=      5-min Rain = 0
KTAS 141832Z 04017KT 10/M01 A3038 RMK A01 T01011011  RH  046%=      5-min Rain = 0
KTAS 141833Z 04014KT 10/M01 A3038 RMK A01 T01011012  RH  045%=      5-min Rain = 0
KTAS 141834Z 04011KT 10/M01 A3038 RMK A01 T01021009  RH  046%=      5-min Rain = 0
KTAS 141835Z 03010KT 11/M01 A3038 RMK A01 T01051008  RH  045%=      5-min Rain = 0
KTAS 141836Z 05012G18KT 11/M01 A3038 RMK A01 T01071008  RH  045%=      5-min Rain = 0
KTAS 141837Z 07014KT 11/M01 A3038 RMK A01 T01081009  RH  044%=      5-min Rain = 0
KTAS 141838Z 06014KT 11/M01 A3038 RMK A01 T01071012  RH  044%=      5-min Rain = 0
KTAS 141839Z 05014KT 11/M01 A3038 RMK A01 T01061010  RH  044%=      5-min Rain = 0
KTAS 141840Z 05013G18KT 11/M01 A3038 RMK A01 T01061011  RH  044%=      5-min Rain = 0
KTAS 141841Z 04015KT 11/M01 A3038 RMK A01 T01051010  RH  045%=      5-min Rain = 0
KTAS 141842Z 03013KT 10/M01 A3038 RMK A01 T01041010  RH  045%=      5-min Rain = 0
KTAS 141843Z 06014KT 11/M01 A3037 RMK A01 T01071008  RH  045%=      5-min Rain = 0
KTAS 141844Z 07012KT 11/M01 A3038 RMK A01 T01081010  RH  044%=      5-min Rain = 0
KTAS 141845Z 05012KT 11/M01 A3038 RMK A01 T01091011  RH  043%=      5-min Rain = 0
KTAS 141846Z 04012KT 11/M01 A3038 RMK A01 T01071010  RH  044%=      5-min Rain = 0
KTAS 141847Z 06013G19KT 11/M01 A3038 RMK A01 T01051011  RH  044%=      5-min Rain = 0
KTAS 141848Z 05013KT 10/M01 A3037 RMK A01 T01031012  RH  045%=      5-min Rain = 0
KTAS 141849Z 06013KT 11/M01 A3037 RMK A01 T01051009  RH  045%=      5-min Rain = 0
KTAS 141850Z 06013KT 11/M01 A3037 RMK A01 T01071011  RH  044%=      5-min Rain = 0
KTAS 141851Z 07013KT 11/M01 A3037 RMK A01 T01071010  RH  044%=      5-min Rain = 0
KTAS 141852Z 06013KT 11/M01 A3037 RMK A01 T01081009  RH  044%=      5-min Rain = 0
KTAS 141853Z 05011KT 11/M01 A3037 RMK A01 T01091008  RH  044%=      5-min Rain = 0
KTAS 141854Z 04010KT 11/M01 A3037 RMK A01 T01091009  RH  044%=      5-min Rain = 0
KTAS 141855Z 03011KT 11/M01 A3037 RMK A01 T01091009  RH  044%=      5-min Rain = 0
KTAS 141856Z 04008KT 11/M01 A3037 RMK A01 T01051012  RH  044%=      5-min Rain = 0
KTAS 141857Z 04005KT 10/M01 A3037 RMK A01 T01011013  RH  045%=      5-min Rain = 0
KTAS 141858Z 05008G14KT 10/M01 A3037 RMK A01 T01021009  RH  046%=      5-min Rain = 0
KTAS 141859Z 05012KT 11/M01 A3037 RMK A01 T01061007  RH  045%=      5-min Rain = 0
KTAS 141900Z 04011KT 11/M01 A3037 RMK A01 T01091008  RH  044%=      5-min Rain = 0
KTAS 141901Z 06011KT 11/M01 A3037 RMK A01 T01111006  RH  045%=      5-min Rain = 0
KTAS 141902Z 07013KT 11/M01 A3037 RMK A01 T01121009  RH  043%=      5-min Rain = 0
KTAS 141903Z 07013KT 11/M01 A3037 RMK A01 T01111009  RH  043%=      5-min Rain = 0
KTAS 141904Z 07012KT 11/M01 A3037 RMK A01 T01091010  RH  044%=      5-min Rain = 0
KTAS 141905Z 07008KT 11/M01 A3037 RMK A01 T01111008  RH  044%=      5-min Rain = 0
KTAS 141906Z 06011KT 11/M01 A3037 RMK A01 T01111010  RH  043%=      5-min Rain = 0
KTAS 141907Z 05009KT 11/M01 A3037 RMK A01 T01101010  RH  044%=      5-min Rain = 0
KTAS 141908Z 04013KT 11/M01 A3037 RMK A01 T01111009  RH  044%=      5-min Rain = 0
KTAS 141909Z 04013KT 11/M01 A3037 RMK A01 T01111008  RH  044%=      5-min Rain = 0
KTAS 141910Z 04012KT 11/M01 A3037 RMK A01 T01111009  RH  043%=      5-min Rain = 0
KTAS 141911Z 05013KT 11/M01 A3036 RMK A01 T01091010  RH  044%=      5-min Rain = 0
KTAS 141912Z 05013KT 11/M01 A3036 RMK A01 T01081011  RH  044%=      5-min Rain = 0
KTAS 141913Z 04016KT 11/M01 A3036 RMK A01 T01071010  RH  044%=      5-min Rain = 0
KTAS 141914Z 04013KT 11/M01 A3036 RMK A01 T01091009  RH  044%=      5-min Rain = 0
KTAS 141915Z 04012KT 11/M01 A3036 RMK A01 T01091010  RH  044%=      5-min Rain = 0
KTAS 141916Z 05012KT 11/M01 A3036 RMK A01 T01091011  RH  043%=      5-min Rain = 0
KTAS 141917Z 05010KT 11/M01 A3036 RMK A01 T01071010  RH  044%=      5-min Rain = 0
KTAS 141918Z 05010KT 11/M01 A3036 RMK A01 T01081009  RH  044%=      5-min Rain = 0
KTAS 141919Z 06010KT 11/M01 A3036 RMK A01 T01091007  RH  045%=      5-min Rain = 0
KTAS 141920Z 07008KT 11/M01 A3036 RMK A01 T01111008  RH  044%=      5-min Rain = 0
KTAS 141921Z 05010KT 11/M01 A3036 RMK A01 T01121007  RH  044%=      5-min Rain = 0
KTAS 141922Z 05011KT 12/M01 A3036 RMK A01 T01151006  RH  043%=      5-min Rain = 0
KTAS 141923Z 06010KT 12/M01 A3036 RMK A01 T01171006  RH  043%=      5-min Rain = 0
KTAS 141924Z 06011KT 12/M01 A3036 RMK A01 T01171007  RH  042%=      5-min Rain = 0
KTAS 141925Z 06014KT 12/M01 A3036 RMK A01 T01191007  RH  042%=      5-min Rain = 0
KTAS 141926Z 07013G18KT 12/M01 A3036 RMK A01 T01151010  RH  042%=      5-min Rain = 0
KTAS 141927Z 07011KT 11/M01 A3036 RMK A01 T01121011  RH  043%=      5-min Rain = 0
KTAS 141928Z 07008KT 11/M01 A3036 RMK A01 T01101011  RH  043%=      5-min Rain = 0
KTAS 141929Z 06007KT 11/M01 A3036 RMK A01 T01081010  RH  044%=      5-min Rain = 0
KTAS 141930Z 06009KT 11/M01 A3036 RMK A01 T01081009  RH  044%=      5-min Rain = 0
KTAS 141931Z 07010KT 11/M01 A3036 RMK A01 T01101008  RH  044%=      5-min Rain = 0
KTAS 141932Z 06013KT 11/M01 A3036 RMK A01 T01131007  RH  043%=      5-min Rain = 0
KTAS 141933Z 05012KT 11/M01 A3036 RMK A01 T01141009  RH  042%=      5-min Rain = 0
KTAS 141934Z 05009KT 11/M01 A3036 RMK A01 T01141008  RH  043%=      5-min Rain = 0
KTAS 141935Z 05009G14KT 11/M01 A3036 RMK A01 T01141009  RH  043%=      5-min Rain = 0
KTAS 141936Z 06012KT 12/M01 A3036 RMK A01 T01161007  RH  043%=      5-min Rain = 0
KTAS 141937Z 06010KT 12/M01 A3036 RMK A01 T01161009  RH  042%=      5-min Rain = 0
KTAS 141938Z 07011KT 12/M01 A3036 RMK A01 T01171009  RH  042%=      5-min Rain = 0
KTAS 141939Z 08011KT 12/M01 A3036 RMK A01 T01151010  RH  042%=      5-min Rain = 0
KTAS 141940Z 07013KT 11/M01 A3036 RMK A01 T01141009  RH  042%=      5-min Rain = 0
KTAS 141941Z 07012KT 11/M01 A3036 RMK A01 T01121009  RH  043%=      5-min Rain = 0
KTAS 141942Z 08010KT 12/M01 A3036 RMK A01 T01151007  RH  043%=      5-min Rain = 0
KTAS 141943Z 08008KT 12/M01 A3036 RMK A01 T01151008  RH  042%=      5-min Rain = 0
KTAS 141944Z 06009KT 11/M01 A3036 RMK A01 T01141009  RH  043%=      5-min Rain = 0
KTAS 141945Z 05009KT 12/M01 A3036 RMK A01 T01151006  RH  043%=      5-min Rain = 0
KTAS 141946Z 04011KT 12/M01 A3036 RMK A01 T01171007  RH  042%=      5-min Rain = 0
KTAS 141947Z 06011KT 11/M01 A3035 RMK A01 T01131009  RH  043%=      5-min Rain = 0
KTAS 141948Z 04013KT 12/M01 A3035 RMK A01 T01151007  RH  043%=      5-min Rain = 0
KTAS 141949Z 06011G16KT 12/M01 A3036 RMK A01 T01161008  RH  042%=      5-min Rain = 0
KTAS 141950Z 05014KT 11/M01 A3035 RMK A01 T01141009  RH  043%=      5-min Rain = 0
KTAS 141951Z 05010KT 11/M01 A3036 RMK A01 T01111010  RH  043%=      5-min Rain = 0
KTAS 141952Z 06009KT 11/M01 A3036 RMK A01 T01101009  RH  044%=      5-min Rain = 0
KTAS 141953Z 06008KT 11/M01 A3036 RMK A01 T01111008  RH  044%=      5-min Rain = 0
KTAS 141954Z 07008KT 11/M01 A3035 RMK A01 T01111008  RH  043%=      5-min Rain = 0
KTAS 141955Z 05010KT 12/M01 A3035 RMK A01 T01151005  RH  043%=      5-min Rain = 0
KTAS 141956Z 07009KT 12/M01 A3035 RMK A01 T01171006  RH  043%=      5-min Rain = 0
KTAS 141957Z 07007KT 12/M01 A3035 RMK A01 T01171007  RH  042%=      5-min Rain = 0
KTAS 141958Z 04008KT 12/M01 A3035 RMK A01 T01181006  RH  042%=      5-min Rain = 0
KTAS 141959Z 09007KT 12/M01 A3035 RMK A01 T01191006  RH  042%=      5-min Rain = 0
KTAS 142000Z 08010KT 12/M01 A3035 RMK A01 T01201006  RH  042%=      5-min Rain = 0
KTAS 142001Z 07011KT 12/M01 A3035 RMK A01 T01211005  RH  042%=      5-min Rain = 0
KTAS 142002Z 07009KT 12/M01 A3035 RMK A01 T01191008  RH  041%=      5-min Rain = 0
KTAS 142003Z 05014KT 12/M01 A3035 RMK A01 T01161007  RH  042%=      5-min Rain = 0
KTAS 142004Z 06012KT 12/M01 A3035 RMK A01 T01161008  RH  042%=      5-min Rain = 0
KTAS 142005Z 06012KT 12/M01 A3035 RMK A01 T01161008  RH  042%=      5-min Rain = 0
KTAS 142006Z 06012KT 12/M01 A3035 RMK A01 T01151009  RH  042%=      5-min Rain = 0
KTAS 142007Z 06009KT 11/M01 A3035 RMK A01 T01131010  RH  042%=      5-min Rain = 0
KTAS 142008Z 05012KT 11/M01 A3035 RMK A01 T01141008  RH  043%=      5-min Rain = 0
KTAS 142009Z 06010KT 11/M01 A3035 RMK A01 T01141009  RH  042%=      5-min Rain = 0
KTAS 142010Z 09010KT 12/M01 A3035 RMK A01 T01151008  RH  042%=      5-min Rain = 0
KTAS 142011Z 08009KT 12/M01 A3035 RMK A01 T01151009  RH  042%=      5-min Rain = 0
KTAS 142012Z 08005KT 11/M01 A3035 RMK A01 T01141009  RH  042%=      5-min Rain = 0
KTAS 142013Z 08010KT 12/M01 A3035 RMK A01 T01181007  RH  042%=      5-min Rain = 0
KTAS 142014Z 08009KT 12/M01 A3035 RMK A01 T01171010  RH  041%=      5-min Rain = 0
KTAS 142015Z 07011KT 12/M01 A3035 RMK A01 T01181008  RH  042%=      5-min Rain = 0
KTAS 142016Z 05013KT 12/M01 A3035 RMK A01 T01181009  RH  041%=      5-min Rain = 0
KTAS 142017Z 05012KT 12/M01 A3035 RMK A01 T01171009  RH  042%=      5-min Rain = 0
KTAS 142018Z 05012KT 12/M01 A3035 RMK A01 T01181007  RH  042%=      5-min Rain = 0
KTAS 142019Z 05010KT 12/M01 A3035 RMK A01 T01191008  RH  041%=      5-min Rain = 0
KTAS 142020Z 08008KT 12/M01 A3035 RMK A01 T01171010  RH  041%=      5-min Rain = 0
KTAS 142021Z 07007KT 12/M01 A3035 RMK A01 T01161011  RH  041%=      5-min Rain = 0
KTAS 142022Z 05007KT 12/M01 A3035 RMK A01 T01171010  RH  041%=      5-min Rain = 0
KTAS 142023Z 05008KT 12/M01 A3035 RMK A01 T01181007  RH  042%=      5-min Rain = 0
KTAS 142024Z 07009KT 12/M01 A3035 RMK A01 T01211007  RH  041%=      5-min Rain = 0
KTAS 142025Z 07010G17KT 12/M01 A3035 RMK A01 T01221007  RH  041%=      5-min Rain = 0
KTAS 142026Z 07009KT 12/M01 A3035 RMK A01 T01201010  RH  041%=      5-min Rain = 0
KTAS 142027Z 04010KT 12/M01 A3035 RMK A01 T01181009  RH  041%=      5-min Rain = 0
KTAS 142028Z 05009KT 12/M01 A3035 RMK A01 T01181009  RH  041%=      5-min Rain = 0
KTAS 142029Z 06009KT 12/M01 A3035 RMK A01 T01181009  RH  041%=      5-min Rain = 0
KTAS 142030Z 06008KT 12/M01 A3035 RMK A01 T01181011  RH  041%=      5-min Rain = 0
KTAS 142031Z 06007KT 12/M01 A3035 RMK A01 T01171010  RH  041%=      5-min Rain = 0
KTAS 142032Z 05008G13KT 12/M01 A3035 RMK A01 T01211007  RH  041%=      5-min Rain = 0
KTAS 142033Z 04008KT 12/M01 A3035 RMK A01 T01241007  RH  040%=      5-min Rain = 0
KTAS 142034Z 05012KT 12/M01 A3035 RMK A01 T01231009  RH  040%=      5-min Rain = 0
KTAS 142035Z 05011KT 12/M01 A3035 RMK A01 T01201010  RH  040%=      5-min Rain = 0
KTAS 142036Z 05009KT 12/M01 A3035 RMK A01 T01171010  RH  041%=      5-min Rain = 0
KTAS 142037Z 07008KT 12/M01 A3035 RMK A01 T01161010  RH  041%=      5-min Rain = 0
KTAS 142038Z 06007KT 12/M01 A3035 RMK A01 T01161011  RH  041%=      5-min Rain = 0
KTAS 142039Z 07010G15KT 12/M01 A3035 RMK A01 T01181010  RH  041%=      5-min Rain = 0
KTAS 142040Z 04010KT 12/M01 A3035 RMK A01 T01191009  RH  041%=      5-min Rain = 0
KTAS 142041Z 06012KT 12/M01 A3035 RMK A01 T01201009  RH  041%=      5-min Rain = 0
KTAS 142042Z 07009KT 12/M01 A3035 RMK A01 T01191011  RH  040%=      5-min Rain = 0
KTAS 142043Z 04008KT 12/M01 A3035 RMK A01 T01211010  RH  040%=      5-min Rain = 0
KTAS 142044Z 04007KT 12/M01 A3035 RMK A01 T01201011  RH  040%=      5-min Rain = 0
KTAS 142045Z 04008KT 12/M01 A3035 RMK A01 T01211008  RH  041%=      5-min Rain = 0
KTAS 142046Z 06009KT 12/M01 A3035 RMK A01 T01221009  RH  040%=      5-min Rain = 0
KTAS 142047Z 05008KT 12/M01 A3035 RMK A01 T01191013  RH  040%=      5-min Rain = 0
KTAS 142048Z 05005KT 12/M01 A3035 RMK A01 T01151014  RH  041%=      5-min Rain = 0
KTAS 142049Z 05004KT 12/M01 A3035 RMK A01 T01161010  RH  042%=      5-min Rain = 0
KTAS 142050Z 05006KT 12/M01 A3035 RMK A01 T01191008  RH  041%=      5-min Rain = 0
KTAS 142051Z 03010KT 12/M01 A3035 RMK A01 T01221009  RH  040%=      5-min Rain = 0
KTAS 142052Z 04007KT 12/M01 A3035 RMK A01 T01211011  RH  040%=      5-min Rain = 0
KTAS 142053Z 05010KT 12/M01 A3035 RMK A01 T01221008  RH  041%=      5-min Rain = 0
KTAS 142054Z 03010KT 12/M01 A3035 RMK A01 T01221009  RH  040%=      5-min Rain = 0
KTAS 142055Z 04007KT 12/M01 A3035 RMK A01 T01221008  RH  041%=      5-min Rain = 0
KTAS 142056Z 05008KT 13/M01 A3035 RMK A01 T01251006  RH  041%=      5-min Rain = 0
KTAS 142057Z 05012KT 12/M01 A3035 RMK A01 T01241009  RH  040%=      5-min Rain = 0
KTAS 142058Z 06008KT 12/M01 A3034 RMK A01 T01201011  RH  040%=      5-min Rain = 0
KTAS 142059Z 05006KT 12/M01 A3034 RMK A01 T01191011  RH  041%=      5-min Rain = 0
KTAS 142100Z 03008KT 12/M01 A3034 RMK A01 T01191010  RH  041%=      5-min Rain = 0
KTAS 142101Z 04010KT 12/M01 A3034 RMK A01 T01191009  RH  041%=      5-min Rain = 0
KTAS 142102Z 06008KT 12/M01 A3034 RMK A01 T01191010  RH  041%=      5-min Rain = 0
KTAS 142103Z 05009KT 12/M01 A3034 RMK A01 T01191010  RH  041%=      5-min Rain = 0
KTAS 142104Z 06010KT 12/M01 A3034 RMK A01 T01201009  RH  041%=      5-min Rain = 0
KTAS 142105Z 06010KT 12/M01 A3034 RMK A01 T01191010  RH  041%=      5-min Rain = 0
KTAS 142106Z 06010KT 12/M01 A3034 RMK A01 T01201010  RH  040%=      5-min Rain = 0
KTAS 142107Z 07012KT 12/M01 A3034 RMK A01 T01241008  RH  040%=      5-min Rain = 0
KTAS 142108Z 05009KT 12/M01 A3034 RMK A01 T01241010  RH  040%=      5-min Rain = 0
KTAS 142109Z 04010KT 12/M01 A3035 RMK A01 T01221011  RH  040%=      5-min Rain = 0
KTAS 142110Z 03005KT 12/M01 A3035 RMK A01 T01201011  RH  040%=      5-min Rain = 0
KTAS 142111Z 03009KT 12/M01 A3035 RMK A01 T01191010  RH  041%=      5-min Rain = 0
KTAS 142112Z 05012KT 12/M01 A3034 RMK A01 T01191010  RH  041%=      5-min Rain = 0
KTAS 142113Z 08010KT 12/M01 A3035 RMK A01 T01211010  RH  040%=      5-min Rain = 0
KTAS 142114Z 07008KT 12/M01 A3034 RMK A01 T01211011  RH  040%=      5-min Rain = 0
KTAS 142115Z 07008KT 12/M01 A3034 RMK A01 T01221009  RH  040%=      5-min Rain = 0
KTAS 142116Z 07013KT 12/M01 A3034 RMK A01 T01241009  RH  040%=      5-min Rain = 0
KTAS 142117Z 07009KT 12/M01 A3035 RMK A01 T01211012  RH  040%=      5-min Rain = 0
KTAS 142118Z 07009KT 12/M01 A3035 RMK A01 T01211011  RH  040%=      5-min Rain = 0
KTAS 142119Z 05009KT 12/M01 A3035 RMK A01 T01201011  RH  040%=      5-min Rain = 0
KTAS 142120Z 06008KT 12/M01 A3035 RMK A01 T01171012  RH  041%=      5-min Rain = 0
KTAS 142121Z 06008KT 12/M01 A3034 RMK A01 T01181009  RH  041%=      5-min Rain = 0
KTAS 142122Z 07008KT 12/M01 A3034 RMK A01 T01211008  RH  041%=      5-min Rain = 0
KTAS 142123Z 06007KT 12/M01 A3034 RMK A01 T01231009  RH  040%=      5-min Rain = 0
KTAS 142124Z 05013KT 12/M01 A3034 RMK A01 T01231010  RH  040%=      5-min Rain = 0
KTAS 142125Z 03010KT 12/M01 A3034 RMK A01 T01211012  RH  040%=      5-min Rain = 0
KTAS 142126Z 04009KT 12/M01 A3034 RMK A01 T01181013  RH  040%=      5-min Rain = 0
KTAS 142127Z 05009KT 12/M01 A3034 RMK A01 T01171012  RH  041%=      5-min Rain = 0
KTAS 142128Z 04008KT 12/M01 A3034 RMK A01 T01161013  RH  041%=      5-min Rain = 0
KTAS 142129Z 04008KT 12/M01 A3034 RMK A01 T01181010  RH  041%=      5-min Rain = 0
KTAS 142130Z 04011KT 12/M01 A3034 RMK A01 T01211010  RH  040%=      5-min Rain = 0
KTAS 142131Z 04010KT 12/M01 A3035 RMK A01 T01211010  RH  040%=      5-min Rain = 0
KTAS 142132Z 03011KT 12/M01 A3035 RMK A01 T01231010  RH  040%=      5-min Rain = 0
KTAS 142133Z 04012KT 12/M01 A3034 RMK A01 T01211014  RH  039%=      5-min Rain = 0
KTAS 142134Z 03011KT 12/M02 A3035 RMK A01 T01181015  RH  040%=      5-min Rain = 0
KTAS 142135Z 03008KT 12/M01 A3034 RMK A01 T01171014  RH  040%=      5-min Rain = 0
KTAS 142136Z 04009KT 12/M01 A3034 RMK A01 T01171014  RH  040%=      5-min Rain = 0
KTAS 142137Z 03012KT 12/M01 A3034 RMK A01 T01181012  RH  041%=      5-min Rain = 0
KTAS 142138Z 06011KT 12/M01 A3035 RMK A01 T01171012  RH  041%=      5-min Rain = 0
KTAS 142139Z 07008KT 12/M01 A3035 RMK A01 T01151013  RH  041%=      5-min Rain = 0
KTAS 142140Z 05006KT 12/M01 A3035 RMK A01 T01161011  RH  041%=      5-min Rain = 0
KTAS 142141Z 05010KT 12/M01 A3035 RMK A01 T01181011  RH  041%=      5-min Rain = 0
KTAS 142142Z 05013KT 12/M01 A3035 RMK A01 T01191012  RH  040%=      5-min Rain = 0
KTAS 142143Z 05014KT 12/M01 A3035 RMK A01 T01181013  RH  040%=      5-min Rain = 0
KTAS 142144Z 04011KT 12/M01 A3035 RMK A01 T01161014  RH  040%=      5-min Rain = 0
KTAS 142145Z 04010KT 12/M01 A3035 RMK A01 T01151014  RH  041%=      5-min Rain = 0
KTAS 142146Z 04008KT 12/M01 A3035 RMK A01 T01151012  RH  041%=      5-min Rain = 0
KTAS 142147Z 06008KT 12/M01 A3035 RMK A01 T01191010  RH  041%=      5-min Rain = 0
KTAS 142148Z 07008KT 12/M01 A3035 RMK A01 T01201012  RH  040%=      5-min Rain = 0
KTAS 142149Z 07009KT 12/M01 A3035 RMK A01 T01201012  RH  040%=      5-min Rain = 0
KTAS 142150Z 04008KT 12/M01 A3035 RMK A01 T01221011  RH  040%=      5-min Rain = 0
KTAS 142151Z 03007KT 12/M01 A3035 RMK A01 T01221012  RH  039%=      5-min Rain = 0
KTAS 142152Z 04010KT 12/M01 A3035 RMK A01 T01201013  RH  039%=      5-min Rain = 0
KTAS 142153Z 04008KT 12/M01 A3035 RMK A01 T01191013  RH  040%=      5-min Rain = 0
KTAS 142154Z 04011KT 12/M01 A3035 RMK A01 T01191013  RH  040%=      5-min Rain = 0
KTAS 142155Z 05010KT 12/M01 A3035 RMK A01 T01181012  RH  040%=      5-min Rain = 0
KTAS 142156Z 07011KT 12/M01 A3035 RMK A01 T01181012  RH  040%=      5-min Rain = 0
KTAS 142157Z 07008KT 12/M01 A3035 RMK A01 T01171013  RH  040%=      5-min Rain = 0
KTAS 142158Z 04011KT 12/M01 A3035 RMK A01 T01161013  RH  041%=      5-min Rain = 0
KTAS 142159Z 04011KT 12/M01 A3035 RMK A01 T01161014  RH  041%=      5-min Rain = 0
KTAS 142200Z 04010KT 11/M01 A3035 RMK A01 T01141014  RH  041%=      5-min Rain = 0
KTAS 142201Z 04009KT 11/M01 A3035 RMK A01 T01141014  RH  041%=      5-min Rain = 0
KTAS 142202Z 03009KT 11/M01 A3035 RMK A01 T01141013  RH  041%=      5-min Rain = 0
KTAS 142203Z 02008KT 12/M01 A3035 RMK A01 T01151013  RH  041%=      5-min Rain = 0
KTAS 142204Z 03009KT 12/M01 A3035 RMK A01 T01151013  RH  041%=      5-min Rain = 0
KTAS 142205Z 05008KT 12/M01 A3035 RMK A01 T01151012  RH  041%=      5-min Rain = 0
KTAS 142206Z 03008KT 12/M01 A3035 RMK A01 T01171012  RH  041%=      5-min Rain = 0
KTAS 142207Z 04009KT 12/M01 A3035 RMK A01 T01161013  RH  041%=      5-min Rain = 0
KTAS 142208Z 03011KT 12/M01 A3035 RMK A01 T01161012  RH  041%=      5-min Rain = 0
KTAS 142209Z 04008KT 12/M01 A3035 RMK A01 T01151013  RH  041%=      5-min Rain = 0
KTAS 142210Z 03007KT 12/M01 A3035 RMK A01 T01151012  RH  041%=      5-min Rain = 0
KTAS 142211Z 03007KT 12/M01 A3035 RMK A01 T01161012  RH  041%=      5-min Rain = 0
KTAS 142212Z 08008KT 12/M01 A3035 RMK A01 T01181011  RH  041%=      5-min Rain = 0
KTAS 142213Z 08007KT 12/M01 A3035 RMK A01 T01181010  RH  041%=      5-min Rain = 0
KTAS 142214Z 06007KT 12/M01 A3035 RMK A01 T01191008  RH  041%=      5-min Rain = 0
KTAS 142215Z 03011KT 12/M01 A3035 RMK A01 T01191010  RH  041%=      5-min Rain = 0
KTAS 142216Z 05009KT 12/M01 A3035 RMK A01 T01161013  RH  041%=      5-min Rain = 0
KTAS 142217Z 04010KT 12/M01 A3035 RMK A01 T01151011  RH  042%=      5-min Rain = 0
KTAS 142218Z 03009KT 12/M01 A3035 RMK A01 T01151011  RH  041%=      5-min Rain = 0
KTAS 142219Z 03011KT 12/M01 A3035 RMK A01 T01151011  RH  041%=      5-min Rain = 0
KTAS 142220Z 03010KT 12/M01 A3035 RMK A01 T01151012  RH  041%=      5-min Rain = 0
KTAS 142221Z 03010KT 11/M01 A3035 RMK A01 T01141012  RH  042%=      5-min Rain = 0
KTAS 142222Z 03010KT 11/M01 A3035 RMK A01 T01131012  RH  042%=      5-min Rain = 0
KTAS 142223Z 03010KT 11/M01 A3035 RMK A01 T01131012  RH  042%=      5-min Rain = 0
KTAS 142224Z 03009KT 11/M01 A3035 RMK A01 T01131011  RH  042%=      5-min Rain = 0
KTAS 142225Z 04009KT 11/M01 A3035 RMK A01 T01131011  RH  042%=      5-min Rain = 0
KTAS 142226Z 05009KT 11/M01 A3035 RMK A01 T01131012  RH  042%=      5-min Rain = 0
KTAS 142227Z 05008KT 11/M01 A3035 RMK A01 T01131012  RH  042%=      5-min Rain = 0
KTAS 142228Z 05009KT 11/M01 A3035 RMK A01 T01131012  RH  042%=      5-min Rain = 0
KTAS 142229Z 05010KT 11/M01 A3035 RMK A01 T01121012  RH  042%=      5-min Rain = 0
KTAS 142230Z 04007KT 11/M01 A3035 RMK A01 T01121012  RH  042%=      5-min Rain = 0
KTAS 142231Z 03007KT 11/M01 A3035 RMK A01 T01121011  RH  043%=      5-min Rain = 0
KTAS 142232Z 03007KT 11/M01 A3035 RMK A01 T01121012  RH  042%=      5-min Rain = 0
KTAS 142233Z 03009KT 11/M01 A3035 RMK A01 T01121011  RH  043%=      5-min Rain = 0
KTAS 142234Z 06008KT 11/M01 A3035 RMK A01 T01121010  RH  043%=      5-min Rain = 0
KTAS 142235Z 05006KT 11/M01 A3035 RMK A01 T01121010  RH  043%=      5-min Rain = 0
KTAS 142236Z 05006KT 11/M01 A3035 RMK A01 T01131009  RH  043%=      5-min Rain = 0
KTAS 142237Z 05006KT 11/M01 A3035 RMK A01 T01141010  RH  042%=      5-min Rain = 0
KTAS 142238Z 05006KT 11/M01 A3035 RMK A01 T01131011  RH  042%=      5-min Rain = 0
KTAS 142239Z 05008KT 11/M01 A3035 RMK A01 T01131010  RH  043%=      5-min Rain = 0
KTAS 142240Z 05007KT 11/M01 A3035 RMK A01 T01121011  RH  043%=      5-min Rain = 0
KTAS 142241Z 05009KT 11/M01 A3035 RMK A01 T01111011  RH  043%=      5-min Rain = 0
KTAS 142242Z 05009KT 11/M01 A3035 RMK A01 T01111011  RH  043%=      5-min Rain = 0
KTAS 142243Z 06007KT 11/M01 A3035 RMK A01 T01101011  RH  043%=      5-min Rain = 0
KTAS 142244Z 05006KT 11/M01 A3035 RMK A01 T01101011  RH  043%=      5-min Rain = 0
KTAS 142245Z 05005KT 11/M01 A3035 RMK A01 T01101010  RH  043%=      5-min Rain = 0
KTAS 142246Z 05006KT 11/M01 A3035 RMK A01 T01121009  RH  043%=      5-min Rain = 0
KTAS 142247Z 05008KT 11/M01 A3035 RMK A01 T01121010  RH  043%=      5-min Rain = 0
KTAS 142248Z 04008KT 11/M01 A3035 RMK A01 T01121011  RH  043%=      5-min Rain = 0
KTAS 142249Z 05007KT 11/M01 A3035 RMK A01 T01111010  RH  043%=      5-min Rain = 0
KTAS 142250Z 04009KT 11/M01 A3035 RMK A01 T01101010  RH  043%=      5-min Rain = 0
KTAS 142251Z 05007KT 11/M01 A3035 RMK A01 T01091011  RH  043%=      5-min Rain = 0
KTAS 142252Z 05008KT 11/M01 A3035 RMK A01 T01081012  RH  043%=      5-min Rain = 0
KTAS 142253Z 04007KT 11/M01 A3035 RMK A01 T01081012  RH  043%=      5-min Rain = 0
KTAS 142254Z 03007KT 11/M01 A3035 RMK A01 T01071012  RH  043%=      5-min Rain = 0
KTAS 142255Z 03007KT 11/M01 A3035 RMK A01 T01071012  RH  043%=      5-min Rain = 0
KTAS 142256Z 03007KT 11/M01 A3035 RMK A01 T01071012  RH  044%=      5-min Rain = 0
KTAS 142257Z 03007KT 11/M01 A3035 RMK A01 T01071010  RH  044%=      5-min Rain = 0
KTAS 142258Z 05006KT 11/M01 A3035 RMK A01 T01071009  RH  044%=      5-min Rain = 0
KTAS 142259Z 05009KT 11/M01 A3035 RMK A01 T01071010  RH  044%=      5-min Rain = 0
KTAS 142300Z 05008KT 11/M01 A3035 RMK A01 T01071012  RH  044%=      5-min Rain = 0
KTAS 142301Z 03008KT 11/M01 A3035 RMK A01 T01061011  RH  044%=      5-min Rain = 0
KTAS 142302Z 03007KT 11/M01 A3035 RMK A01 T01061010  RH  045%=      5-min Rain = 0
KTAS 142303Z 05007KT 11/M01 A3035 RMK A01 T01061010  RH  045%=      5-min Rain = 0
KTAS 142304Z 04008KT 11/M01 A3035 RMK A01 T01051010  RH  045%=      5-min Rain = 0
KTAS 142305Z 04008KT 11/M01 A3035 RMK A01 T01051010  RH  045%=      5-min Rain = 0
KTAS 142306Z 04006KT 11/M01 A3036 RMK A01 T01051010  RH  045%=      5-min Rain = 0
KTAS 142307Z 04008KT 10/M01 A3036 RMK A01 T01041011  RH  045%=      5-min Rain = 0
KTAS 142308Z 05008KT 10/M01 A3036 RMK A01 T01031011  RH  045%=      5-min Rain = 0
KTAS 142309Z 04007KT 10/M01 A3036 RMK A01 T01031011  RH  045%=      5-min Rain = 0
KTAS 142310Z 04007KT 10/M01 A3036 RMK A01 T01031011  RH  045%=      5-min Rain = 0
KTAS 142311Z 04007KT 10/M01 A3036 RMK A01 T01021012  RH  045%=      5-min Rain = 0
KTAS 142312Z 03006KT 10/M01 A3036 RMK A01 T01021012  RH  045%=      5-min Rain = 0
KTAS 142313Z 03005KT 10/M01 A3036 RMK A01 T01021012  RH  045%=      5-min Rain = 0
KTAS 142314Z 03006KT 10/M01 A3036 RMK A01 T01011011  RH  045%=      5-min Rain = 0
KTAS 142315Z 03005KT 10/M01 A3036 RMK A01 T01011011  RH  046%=      5-min Rain = 0
KTAS 142316Z 04007KT 10/M01 A3036 RMK A01 T01001011  RH  046%=      5-min Rain = 0
KTAS 142317Z 04006KT 10/M01 A3036 RMK A01 T01001011  RH  046%=      5-min Rain = 0
KTAS 142318Z 04007KT 10/M01 A3036 RMK A01 T00991011  RH  046%=      5-min Rain = 0
KTAS 142319Z 04007KT 10/M01 A3036 RMK A01 T00981011  RH  046%=      5-min Rain = 0
KTAS 142320Z 05006KT 10/M01 A3036 RMK A01 T00981011  RH  047%=      5-min Rain = 0
KTAS 142321Z 05007KT 10/M01 A3036 RMK A01 T00981011  RH  047%=      5-min Rain = 0
KTAS 142322Z 05006KT 10/M01 A3036 RMK A01 T00971012  RH  047%=      5-min Rain = 0
KTAS 142323Z 04006KT 10/M01 A3036 RMK A01 T00971011  RH  047%=      5-min Rain = 0
KTAS 142324Z 04006KT 10/M01 A3036 RMK A01 T00961011  RH  047%=      5-min Rain = 0
KTAS 142325Z 04006KT 10/M01 A3036 RMK A01 T00961011  RH  047%=      5-min Rain = 0
KTAS 142326Z 04005KT 10/M01 A3036 RMK A01 T00951010  RH  048%=      5-min Rain = 0
KTAS 142327Z 04005KT 10/M01 A3036 RMK A01 T00951010  RH  048%=      5-min Rain = 0
KTAS 142328Z 04005KT 09/M01 A3036 RMK A01 T00941011  RH  048%=      5-min Rain = 0
KTAS 142329Z 04006KT 09/M01 A3036 RMK A01 T00931011  RH  048%=      5-min Rain = 0
KTAS 142330Z 03005KT 09/M01 A3036 RMK A01 T00921011  RH  049%=      5-min Rain = 0
KTAS 142331Z 03005KT 09/M01 A3036 RMK A01 T00911010  RH  049%=      5-min Rain = 0
KTAS 142332Z 03005KT 09/M01 A3036 RMK A01 T00891010  RH  050%=      5-min Rain = 0
KTAS 142333Z 03005KT 09/M01 A3036 RMK A01 T00881010  RH  050%=      5-min Rain = 0
KTAS 142334Z 03005KT 09/M01 A3036 RMK A01 T00871011  RH  050%=      5-min Rain = 0
KTAS 142335Z 03005KT 09/M01 A3036 RMK A01 T00861011  RH  050%=      5-min Rain = 0
KTAS 142336Z 03005KT 09/M01 A3036 RMK A01 T00851012  RH  051%=      5-min Rain = 0
KTAS 142337Z 03005KT 08/M01 A3036 RMK A01 T00831012  RH  051%=      5-min Rain = 0
KTAS 142338Z 03005KT 08/M01 A3036 RMK A01 T00821012  RH  052%=      5-min Rain = 0
KTAS 142339Z 03005KT 08/M01 A3036 RMK A01 T00801012  RH  052%=      5-min Rain = 0
KTAS 142340Z 03005KT 08/M01 A3037 RMK A01 T00791012  RH  053%=      5-min Rain = 0
KTAS 142341Z 04005KT 08/M01 A3037 RMK A01 T00771012  RH  053%=      5-min Rain = 0
KTAS 142342Z 04005KT 08/M01 A3037 RMK A01 T00761012  RH  054%=      5-min Rain = 0
KTAS 142343Z 04005KT 08/M01 A3037 RMK A01 T00751012  RH  054%=      5-min Rain = 0
KTAS 142344Z 04004KT 08/M01 A3037 RMK A01 T00751012  RH  054%=      5-min Rain = 0
KTAS 142345Z 04004KT 07/M01 A3037 RMK A01 T00741012  RH  054%=      5-min Rain = 0
KTAS 142346Z 04004KT 07/M01 A3037 RMK A01 T00741012  RH  055%=      5-min Rain = 0
KTAS 142347Z 04004KT 07/M01 A3037 RMK A01 T00731012  RH  055%=      5-min Rain = 0
KTAS 142348Z 05004KT 07/M01 A3037 RMK A01 T00731011  RH  055%=      5-min Rain = 0
KTAS 142349Z 05004KT 07/M01 A3037 RMK A01 T00741010  RH  055%=      5-min Rain = 0
KTAS 142350Z 06003KT 07/M01 A3037 RMK A01 T00741010  RH  055%=      5-min Rain = 0
KTAS 142351Z 07004KT 07/M01 A3037 RMK A01 T00741010  RH  055%=      5-min Rain = 0
KTAS 142352Z 07004KT 08/M01 A3037 RMK A01 T00751009  RH  055%=      5-min Rain = 0
KTAS 142353Z 07004KT 08/M01 A3037 RMK A01 T00751010  RH  055%=      5-min Rain = 0
KTAS 142354Z 07004KT 08/M01 A3037 RMK A01 T00761011  RH  054%=      5-min Rain = 0
KTAS 142355Z 07004KT 08/M01 A3037 RMK A01 T00761011  RH  054%=      5-min Rain = 0
KTAS 142356Z 07003KT 08/M01 A3037 RMK A01 T00761011  RH  054%=      5-min Rain = 0
KTAS 142357Z 07003KT 08/M01 A3037 RMK A01 T00761011  RH  054%=      5-min Rain = 0
KTAS 142358Z 07003KT 08/M01 A3037 RMK A01 T00771011  RH  054%=      5-min Rain = 0
KTAS 142359Z 07003KT 08/M01 A3037 RMK A01 T00771012  RH  053%=      5-min Rain = 0
KTAS 150000Z 07003KT 08/M01 A3037 RMK A01 T00771012  RH  053%=      5-min Rain = 0
KTAS 150001Z 07002KT 08/M01 A3037 RMK A01 T00771012  RH  053%=      5-min Rain = 0
KTAS 150002Z 07003KT 08/M01 A3038 RMK A01 T00771012  RH  053%=      5-min Rain = 0
KTAS 150003Z 07002KT 08/M01 A3038 RMK A01 T00781012  RH  053%=      5-min Rain = 0
KTAS 150004Z 07002KT 08/M01 A3038 RMK A01 T00771013  RH  053%=      5-min Rain = 0
KTAS 150005Z 07002KT 08/M01 A3038 RMK A01 T00771012  RH  053%=      5-min Rain = 0
KTAS 150006Z 07003KT 08/M01 A3038 RMK A01 T00771013  RH  053%=      5-min Rain = 0
KTAS 150007Z 07002KT 08/M01 A3038 RMK A01 T00761012  RH  053%=      5-min Rain = 0
KTAS 150008Z 07003KT 08/M01 A3038 RMK A01 T00761013  RH  053%=      5-min Rain = 0
KTAS 150009Z 07003KT 08/M01 A3038 RMK A01 T00751013  RH  054%=      5-min Rain = 0
KTAS 150010Z 07003KT 07/M01 A3038 RMK A01 T00741013  RH  054%=      5-min Rain = 0
KTAS 150011Z 07003KT 07/M01 A3038 RMK A01 T00731012  RH  055%=      5-min Rain = 0
KTAS 150012Z 07003KT 07/M01 A3038 RMK A01 T00721012  RH  055%=      5-min Rain = 0
KTAS 150013Z 07003KT 07/M01 A3038 RMK A01 T00721012  RH  055%=      5-min Rain = 0
KTAS 150014Z 07003KT 07/M01 A3038 RMK A01 T00711013  RH  055%=      5-min Rain = 0
KTAS 150015Z 08003KT 07/M01 A3038 RMK A01 T00701012  RH  056%=      5-min Rain = 0
KTAS 150016Z 08003KT 07/M01 A3038 RMK A01 T00681012  RH  056%=      5-min Rain = 0
KTAS 150017Z 08003KT 07/M01 A3038 RMK A01 T00671012  RH  057%=      5-min Rain = 0
KTAS 150018Z 08003KT 07/M01 A3038 RMK A01 T00671012  RH  057%=      5-min Rain = 0
KTAS 150019Z 08003KT 07/M01 A3038 RMK A01 T00661012  RH  057%=      5-min Rain = 0
KTAS 150020Z 08003KT 07/M01 A3038 RMK A01 T00661011  RH  058%=      5-min Rain = 0
KTAS 150021Z 08003KT 07/M01 A3038 RMK A01 T00661011  RH  058%=      5-min Rain = 0
KTAS 150022Z 08003KT 07/M01 A3038 RMK A01 T00661011  RH  058%=      5-min Rain = 0
KTAS 150023Z 08003KT 07/M01 A3038 RMK A01 T00661011  RH  058%=      5-min Rain = 0
KTAS 150024Z 08003KT 07/M01 A3038 RMK A01 T00661011  RH  058%=      5-min Rain = 0
KTAS 150025Z 08003KT 07/M01 A3039 RMK A01 T00661010  RH  058%=      5-min Rain = 0
KTAS 150026Z 08003KT 07/M01 A3039 RMK A01 T00671010  RH  058%=      5-min Rain = 0
KTAS 150027Z 08003KT 07/M01 A3039 RMK A01 T00661011  RH  058%=      5-min Rain = 0
KTAS 150028Z 07003KT 07/M01 A3039 RMK A01 T00661011  RH  058%=      5-min Rain = 0
KTAS 150029Z 07003KT 07/M01 A3039 RMK A01 T00661011  RH  058%=      5-min Rain = 0
KTAS 150030Z 07003KT 07/M01 A3039 RMK A01 T00661011  RH  058%=      5-min Rain = 0
KTAS 150031Z 07003KT 07/M01 A3039 RMK A01 T00651011  RH  058%=      5-min Rain = 0
KTAS 150032Z 07003KT 07/M01 A3039 RMK A01 T00651011  RH  058%=      5-min Rain = 0
KTAS 150033Z 07003KT 07/M01 A3039 RMK A01 T00651011  RH  058%=      5-min Rain = 0
KTAS 150034Z 07003KT 06/M01 A3039 RMK A01 T00641012  RH  058%=      5-min Rain = 0
KTAS 150035Z 07003KT 06/M01 A3039 RMK A01 T00641011  RH  059%=      5-min Rain = 0
KTAS 150036Z 07003KT 06/M01 A3039 RMK A01 T00641011  RH  059%=      5-min Rain = 0
KTAS 150037Z 07003KT 06/M01 A3039 RMK A01 T00641011  RH  059%=      5-min Rain = 0
KTAS 150038Z 06003KT 07/M01 A3039 RMK A01 T00651011  RH  059%=      5-min Rain = 0
KTAS 150039Z 06003KT 07/M01 A3039 RMK A01 T00651011  RH  059%=      5-min Rain = 0
KTAS 150040Z 06003KT 07/M01 A3039 RMK A01 T00651011  RH  058%=      5-min Rain = 0
KTAS 150041Z 06003KT 07/M01 A3039 RMK A01 T00651011  RH  059%=      5-min Rain = 0
KTAS 150042Z 06003KT 06/M01 A3039 RMK A01 T00641011  RH  059%=      5-min Rain = 0
KTAS 150043Z 06003KT 06/M01 A3039 RMK A01 T00641011  RH  059%=      5-min Rain = 0
KTAS 150044Z 06003KT 06/M01 A3039 RMK A01 T00641011  RH  059%=      5-min Rain = 0
KTAS 150045Z 06003KT 06/M01 A3039 RMK A01 T00631012  RH  059%=      5-min Rain = 0
KTAS 150046Z 06003KT 06/M01 A3039 RMK A01 T00631011  RH  059%=      5-min Rain = 0
KTAS 150047Z 06003KT 06/M01 A3039 RMK A01 T00631011  RH  059%=      5-min Rain = 0
KTAS 150048Z 06003KT 06/M01 A3039 RMK A01 T00621011  RH  059%=      5-min Rain = 0
KTAS 150049Z 06003KT 06/M01 A3039 RMK A01 T00621012  RH  059%=      5-min Rain = 0
KTAS 150050Z 06002KT 06/M01 A3039 RMK A01 T00611013  RH  059%=      5-min Rain = 0
KTAS 150051Z 06002KT 06/M01 A3039 RMK A01 T00611012  RH  059%=      5-min Rain = 0
KTAS 150052Z 06002KT 06/M01 A3039 RMK A01 T00611012  RH  060%=      5-min Rain = 0
KTAS 150053Z 06002KT 06/M01 A3039 RMK A01 T00601012  RH  060%=      5-min Rain = 0
KTAS 150054Z 06003KT 06/M01 A3039 RMK A01 T00601012  RH  060%=      5-min Rain = 0
KTAS 150055Z 06003KT 06/M01 A3039 RMK A01 T00601012  RH  060%=      5-min Rain = 0
KTAS 150056Z 06003KT 06/M01 A3039 RMK A01 T00601012  RH  060%=      5-min Rain = 0
KTAS 150057Z 06003KT 06/M01 A3039 RMK A01 T00601012  RH  060%=      5-min Rain = 0
KTAS 150058Z 06003KT 06/M01 A3039 RMK A01 T00611012  RH  060%=      5-min Rain = 0
KTAS 150059Z 06003KT 06/M01 A3039 RMK A01 T00601012  RH  060%=      5-min Rain = 0
KTAS 150100Z 06002KT 06/M01 A3039 RMK A01 T00601012  RH  060%=      5-min Rain = 0
KTAS 150101Z 06003KT 06/M01 A3039 RMK A01 T00591013  RH  060%=      5-min Rain = 0
KTAS 150102Z 07003KT 06/M01 A304 RMK A01 T00591013  RH  060%=      5-min Rain = 0
KTAS 150103Z 07002KT 06/M01 A304 RMK A01 T00581013  RH  060%=      5-min Rain = 0
KTAS 150104Z 07002KT 06/M01 A304 RMK A01 T00581013  RH  060%=      5-min Rain = 0
KTAS 150105Z 07002KT 06/M01 A304 RMK A01 T00581013  RH  060%=      5-min Rain = 0
KTAS 150106Z 07002KT 06/M01 A304 RMK A01 T00581013  RH  060%=      5-min Rain = 0
KTAS 150107Z 07003KT 06/M01 A304 RMK A01 T00581013  RH  061%=      5-min Rain = 0
KTAS 150108Z 07003KT 06/M01 A304 RMK A01 T00571012  RH  061%=      5-min Rain = 0
KTAS 150109Z 08003KT 06/M01 A304 RMK A01 T00571012  RH  061%=      5-min Rain = 0
KTAS 150110Z 08003KT 06/M01 A304 RMK A01 T00581012  RH  061%=      5-min Rain = 0
KTAS 150111Z 08003KT 06/M01 A304 RMK A01 T00591011  RH  061%=      5-min Rain = 0
KTAS 150112Z 08003KT 06/M01 A304 RMK A01 T00591011  RH  061%=      5-min Rain = 0
KTAS 150113Z 08003KT 06/M01 A304 RMK A01 T00601011  RH  060%=      5-min Rain = 0
KTAS 150114Z 08003KT 06/M01 A304 RMK A01 T00591012  RH  060%=      5-min Rain = 0
KTAS 150115Z 08003KT 06/M01 A304 RMK A01 T00591012  RH  060%=      5-min Rain = 0
KTAS 150116Z 08003KT 06/M01 A304 RMK A01 T00581012  RH  060%=      5-min Rain = 0
KTAS 150117Z 08003KT 06/M01 A304 RMK A01 T00581012  RH  061%=      5-min Rain = 0
KTAS 150118Z 08003KT 06/M01 A304 RMK A01 T00581011  RH  061%=      5-min Rain = 0
KTAS 150119Z 08003KT 06/M01 A304 RMK A01 T00581011  RH  061%=      5-min Rain = 0
KTAS 150120Z 08003KT 06/M01 A304 RMK A01 T00581011  RH  061%=      5-min Rain = 0
KTAS 150121Z 08003KT 06/M01 A304 RMK A01 T00581011  RH  061%=      5-min Rain = 0
KTAS 150122Z 08003KT 06/M01 A304 RMK A01 T00571012  RH  061%=      5-min Rain = 0
KTAS 150123Z 08003KT 06/M01 A304 RMK A01 T00571012  RH  061%=      5-min Rain = 0
KTAS 150124Z 08003KT 06/M01 A304 RMK A01 T00571012  RH  061%=      5-min Rain = 0
KTAS 150125Z 08003KT 06/M01 A304 RMK A01 T00571011  RH  062%=      5-min Rain = 0
KTAS 150126Z 08003KT 06/M01 A304 RMK A01 T00561011  RH  062%=      5-min Rain = 0
KTAS 150127Z 08003KT 06/M01 A304 RMK A01 T00561011  RH  062%=      5-min Rain = 0
KTAS 150128Z 08003KT 06/M01 A304 RMK A01 T00571011  RH  062%=      5-min Rain = 0
KTAS 150129Z 08003KT 06/M01 A304 RMK A01 T00561011  RH  062%=      5-min Rain = 0
KTAS 150130Z 08003KT 06/M01 A304 RMK A01 T00561011  RH  062%=      5-min Rain = 0
KTAS 150131Z 08003KT 06/M01 A304 RMK A01 T00561011  RH  062%=      5-min Rain = 0
KTAS 150132Z 08003KT 06/M01 A304 RMK A01 T00561011  RH  062%=      5-min Rain = 0
KTAS 150133Z 08003KT 06/M01 A304 RMK A01 T00561011  RH  062%=      5-min Rain = 0
KTAS 150134Z 08003KT 06/M01 A304 RMK A01 T00561011  RH  062%=      5-min Rain = 0
KTAS 150135Z 08003KT 06/M01 A304 RMK A01 T00561011  RH  062%=      5-min Rain = 0
KTAS 150136Z 08003KT 06/M01 A304 RMK A01 T00551011  RH  062%=      5-min Rain = 0
KTAS 150137Z 08003KT 06/M01 A304 RMK A01 T00551011  RH  062%=      5-min Rain = 0
KTAS 150138Z 08003KT 06/M01 A304 RMK A01 T00551011  RH  063%=      5-min Rain = 0
KTAS 150139Z 08003KT 06/M01 A304 RMK A01 T00551011  RH  063%=      5-min Rain = 0
KTAS 150140Z 08003KT 06/M01 A304 RMK A01 T00551010  RH  063%=      5-min Rain = 0
KTAS 150141Z 08003KT 06/M01 A304 RMK A01 T00551010  RH  063%=      5-min Rain = 0
KTAS 150142Z 08003KT 05/M01 A304 RMK A01 T00541011  RH  063%=      5-min Rain = 0
KTAS 150143Z 08003KT 06/M01 A304 RMK A01 T00551010  RH  063%=      5-min Rain = 0
KTAS 150144Z 08003KT 06/M01 A304 RMK A01 T00551010  RH  063%=      5-min Rain = 0
KTAS 150145Z 08003KT 06/M01 A304 RMK A01 T00551010  RH  063%=      5-min Rain = 0
KTAS 150146Z 08003KT 06/M01 A304 RMK A01 T00551010  RH  063%=      5-min Rain = 0
KTAS 150147Z 08003KT 06/M01 A304 RMK A01 T00551010  RH  063%=      5-min Rain = 0
KTAS 150148Z 08003KT 06/M01 A304 RMK A01 T00551010  RH  063%=      5-min Rain = 0
KTAS 150149Z 08003KT 05/M01 A304 RMK A01 T00541011  RH  063%=      5-min Rain = 0
KTAS 150150Z 08003KT 05/M01 A304 RMK A01 T00531011  RH  063%=      5-min Rain = 0
KTAS 150151Z 08003KT 05/M01 A3041 RMK A01 T00521012  RH  063%=      5-min Rain = 0
KTAS 150152Z 08003KT 05/M01 A3041 RMK A01 T00511012  RH  064%=      5-min Rain = 0
KTAS 150153Z 08003KT 05/M01 A3041 RMK A01 T00501012  RH  064%=      5-min Rain = 0
KTAS 150154Z 08003KT 05/M01 A3041 RMK A01 T00491012  RH  065%=      5-min Rain = 0
KTAS 150155Z 08004KT 05/M01 A3041 RMK A01 T00501011  RH  065%=      5-min Rain = 0
KTAS 150156Z 08004KT 05/M01 A3041 RMK A01 T00501011  RH  065%=      5-min Rain = 0
KTAS 150157Z 09004KT 05/M01 A3041 RMK A01 T00501011  RH  065%=      5-min Rain = 0
KTAS 150158Z 09004KT 05/M01 A3041 RMK A01 T00501011  RH  065%=      5-min Rain = 0
KTAS 150159Z 09004KT 05/M01 A3041 RMK A01 T00511011  RH  065%=      5-min Rain = 0
KTAS 150200Z 10003KT 05/M01 A3041 RMK A01 T00511011  RH  064%=      5-min Rain = 0
KTAS 150201Z 10003KT 05/M01 A3041 RMK A01 T00511011  RH  064%=      5-min Rain = 0
KTAS 150202Z 10003KT 05/M01 A3041 RMK A01 T00511011  RH  064%=      5-min Rain = 0
KTAS 150203Z 10003KT 05/M01 A3041 RMK A01 T00511011  RH  064%=      5-min Rain = 0
KTAS 150204Z 10003KT 05/M01 A3041 RMK A01 T00501011  RH  064%=      5-min Rain = 0
KTAS 150205Z 10003KT 05/M01 A3041 RMK A01 T00501011  RH  064%=      5-min Rain = 0
KTAS 150206Z 10003KT 05/M01 A3041 RMK A01 T00501011  RH  065%=      5-min Rain = 0
KTAS 150207Z 10003KT 05/M01 A3041 RMK A01 T00501011  RH  065%=      5-min Rain = 0
KTAS 150208Z 10003KT 05/M01 A3041 RMK A01 T00501011  RH  065%=      5-min Rain = 0
KTAS 150209Z 10003KT 05/M01 A3041 RMK A01 T00491010  RH  065%=      5-min Rain = 0
KTAS 150210Z 10003KT 05/M01 A3041 RMK A01 T00491011  RH  065%=      5-min Rain = 0
KTAS 150211Z 10003KT 05/M01 A3041 RMK A01 T00491010  RH  065%=      5-min Rain = 0
KTAS 150212Z 10003KT 05/M01 A3041 RMK A01 T00491010  RH  066%=      5-min Rain = 0
KTAS 150213Z 10003KT 05/M01 A3041 RMK A01 T00481010  RH  066%=      5-min Rain = 0
KTAS 150214Z 10003KT 05/M01 A3041 RMK A01 T00481011  RH  066%=      5-min Rain = 0
KTAS 150215Z 11003KT 05/M01 A3041 RMK A01 T00471011  RH  066%=      5-min Rain = 0
KTAS 150216Z 11003KT 05/M01 A3041 RMK A01 T00461011  RH  066%=      5-min Rain = 0
KTAS 150217Z 11002KT 04/M01 A3041 RMK A01 T00431014  RH  066%=      5-min Rain = 0
KTAS 150218Z 11003KT 04/M01 A3041 RMK A01 T00411014  RH  067%=      5-min Rain = 0
KTAS 150219Z 11003KT 04/M01 A3041 RMK A01 T00391013  RH  069%=      5-min Rain = 0
KTAS 150220Z 11003KT 04/M01 A3041 RMK A01 T00391012  RH  069%=      5-min Rain = 0
KTAS 150221Z 11003KT 04/M01 A3041 RMK A01 T00381012  RH  070%=      5-min Rain = 0
KTAS 150222Z 11003KT 04/M01 A3041 RMK A01 T00391011  RH  070%=      5-min Rain = 0
KTAS 150223Z 11003KT 04/M01 A3041 RMK A01 T00391011  RH  070%=      5-min Rain = 0
KTAS 150224Z 11003KT 04/M01 A3041 RMK A01 T00401010  RH  070%=      5-min Rain = 0
KTAS 150225Z 11003KT 04/M01 A3041 RMK A01 T00401010  RH  070%=      5-min Rain = 0
KTAS 150226Z 11003KT 04/M01 A3041 RMK A01 T00401011  RH  069%=      5-min Rain = 0
KTAS 150227Z 12003KT 04/M01 A3041 RMK A01 T00401011  RH  069%=      5-min Rain = 0
KTAS 150228Z 12003KT 04/M01 A3041 RMK A01 T00401010  RH  069%=      5-min Rain = 0
KTAS 150229Z 12004KT 04/M01 A3041 RMK A01 T00401010  RH  069%=      5-min Rain = 0
KTAS 150230Z 12004KT 04/M01 A3041 RMK A01 T00401010  RH  070%=      5-min Rain = 0
KTAS 150231Z 12004KT 04/M01 A3041 RMK A01 T00411009  RH  070%=      5-min Rain = 0
KTAS 150232Z 12004KT 04/M01 A3041 RMK A01 T00411009  RH  070%=      5-min Rain = 0
KTAS 150233Z 12004KT 04/M01 A3041 RMK A01 T00411009  RH  070%=      5-min Rain = 0
KTAS 150234Z 12004KT 04/M01 A3041 RMK A01 T00421008  RH  070%=      5-min Rain = 0
KTAS 150235Z 12004KT 04/M01 A3041 RMK A01 T00421008  RH  070%=      5-min Rain = 0
KTAS 150236Z 12004KT 04/M01 A3041 RMK A01 T00421008  RH  070%=      5-min Rain = 0
KTAS 150237Z 12004KT 04/M01 A3041 RMK A01 T00421008  RH  070%=      5-min Rain = 0
KTAS 150238Z 12004KT 04/M01 A3041 RMK A01 T00431007  RH  070%=      5-min Rain = 0
KTAS 150239Z 12005KT 04/M01 A3041 RMK A01 T00431008  RH  070%=      5-min Rain = 0
KTAS 150240Z 12005KT 04/M01 A3041 RMK A01 T00431008  RH  070%=      5-min Rain = 0
KTAS 150241Z 12005KT 04/M01 A3041 RMK A01 T00421008  RH  070%=      5-min Rain = 0
KTAS 150242Z 12005KT 04/M01 A3041 RMK A01 T00401009  RH  070%=      5-min Rain = 0
KTAS 150243Z 12004KT 04/M01 A3041 RMK A01 T00391009  RH  071%=      5-min Rain = 0
KTAS 150244Z 12004KT 04/M01 A3041 RMK A01 T00371009  RH  072%=      5-min Rain = 0
KTAS 150245Z 12004KT 04/M01 A3041 RMK A01 T00371009  RH  072%=      5-min Rain = 0
KTAS 150246Z 12004KT 04/M01 A3041 RMK A01 T00361008  RH  073%=      5-min Rain = 0
KTAS 150247Z 12004KT 04/M01 A3041 RMK A01 T00361009  RH  073%=      5-min Rain = 0
KTAS 150248Z 12004KT 04/M01 A3041 RMK A01 T00361008  RH  073%=      5-min Rain = 0
KTAS 150249Z 12004KT 04/M01 A3041 RMK A01 T00361008  RH  073%=      5-min Rain = 0
KTAS 150250Z 12004KT 04/M01 A3041 RMK A01 T00361007  RH  073%=      5-min Rain = 0
KTAS 150251Z 12004KT 04/M01 A3042 RMK A01 T00361008  RH  073%=      5-min Rain = 0
KTAS 150252Z 13004KT 04/M01 A3042 RMK A01 T00361008  RH  073%=      5-min Rain = 0
KTAS 150253Z 13004KT 04/M01 A3042 RMK A01 T00371008  RH  072%=      5-min Rain = 0
KTAS 150254Z 13004KT 04/M01 A3042 RMK A01 T00371008  RH  072%=      5-min Rain = 0
KTAS 150255Z 13004KT 04/M01 A3042 RMK A01 T00371007  RH  073%=      5-min Rain = 0
KTAS 150256Z 13004KT 04/M01 A3042 RMK A01 T00381007  RH  072%=      5-min Rain = 0
KTAS 150257Z 13004KT 04/M01 A3042 RMK A01 T00381007  RH  072%=      5-min Rain = 0
KTAS 150258Z 13004KT 04/M01 A3042 RMK A01 T00381008  RH  072%=      5-min Rain = 0
KTAS 150259Z 13004KT 04/M01 A3042 RMK A01 T00381008  RH  072%=      5-min Rain = 0
KTAS 150300Z 13004KT 04/M01 A3042 RMK A01 T00381009  RH  071%=      5-min Rain = 0
KTAS 150301Z 13004KT 04/M01 A3042 RMK A01 T00381009  RH  071%=      5-min Rain = 0
KTAS 150302Z 13004KT 04/M01 A3042 RMK A01 T00391008  RH  071%=      5-min Rain = 0
KTAS 150303Z 13004KT 04/M01 A3042 RMK A01 T00391008  RH  071%=      5-min Rain = 0
KTAS 150304Z 13004KT 04/M01 A3042 RMK A01 T00401008  RH  071%=      5-min Rain = 0
KTAS 150305Z 13004KT 04/M01 A3042 RMK A01 T00401008  RH  071%=      5-min Rain = 0
KTAS 150306Z 13004KT 04/M01 A3042 RMK A01 T00401008  RH  071%=      5-min Rain = 0
KTAS 150307Z 13004KT 04/M01 A3042 RMK A01 T00401008  RH  071%=      5-min Rain = 0
KTAS 150308Z 13004KT 04/M01 A3042 RMK A01 T00401008  RH  071%=      5-min Rain = 0
KTAS 150309Z 13005KT 04/M01 A3042 RMK A01 T00401008  RH  071%=      5-min Rain = 0
KTAS 150310Z 14004KT 04/M01 A3042 RMK A01 T00391009  RH  071%=      5-min Rain = 0
KTAS 150311Z 14004KT 04/M01 A3042 RMK A01 T00381009  RH  071%=      5-min Rain = 0
KTAS 150312Z 14004KT 04/M01 A3042 RMK A01 T00361010  RH  072%=      5-min Rain = 0
KTAS 150313Z 14004KT 03/M01 A3042 RMK A01 T00341011  RH  072%=      5-min Rain = 0
KTAS 150314Z 14004KT 03/M01 A3042 RMK A01 T00321011  RH  073%=      5-min Rain = 0
KTAS 150315Z 14004KT 03/M01 A3042 RMK A01 T00321010  RH  074%=      5-min Rain = 0
KTAS 150316Z 14004KT 03/M01 A3042 RMK A01 T00331009  RH  074%=      5-min Rain = 0
KTAS 150317Z 14004KT 03/M01 A3042 RMK A01 T00341009  RH  074%=      5-min Rain = 0
KTAS 150318Z 14004KT 03/M01 A3042 RMK A01 T00341009  RH  073%=      5-min Rain = 0
KTAS 150319Z 14005KT 04/M01 A3042 RMK A01 T00351008  RH  073%=      5-min Rain = 0
KTAS 150320Z 14005KT 04/M01 A3042 RMK A01 T00371008  RH  073%=      5-min Rain = 0
KTAS 150321Z 14005KT 04/M01 A3042 RMK A01 T00381007  RH  072%=      5-min Rain = 0
KTAS 150322Z 14005KT 04/M01 A3042 RMK A01 T00381007  RH  072%=      5-min Rain = 0
KTAS 150323Z 14005KT 04/M01 A3042 RMK A01 T00391007  RH  072%=      5-min Rain = 0
KTAS 150324Z 14005KT 04/M01 A3042 RMK A01 T00381008  RH  072%=      5-min Rain = 0
KTAS 150325Z 14005KT 04/M01 A3042 RMK A01 T00371009  RH  072%=      5-min Rain = 0
KTAS 150326Z 14005KT 04/M01 A3042 RMK A01 T00361009  RH  072%=      5-min Rain = 0
KTAS 150327Z 14005KT 04/M01 A3042 RMK A01 T00351010  RH  073%=      5-min Rain = 0
KTAS 150328Z 14005KT 03/M01 A3042 RMK A01 T00341010  RH  073%=      5-min Rain = 0
KTAS 150329Z 14005KT 03/M01 A3042 RMK A01 T00331010  RH  073%=      5-min Rain = 0
KTAS 150330Z 14005KT 03/M01 A3042 RMK A01 T00321010  RH  074%=      5-min Rain = 0
KTAS 150331Z 14005KT 03/M01 A3042 RMK A01 T00311010  RH  074%=      5-min Rain = 0
KTAS 150332Z 14005KT 03/M01 A3042 RMK A01 T00301010  RH  075%=      5-min Rain = 0
KTAS 150333Z 14005KT 03/M01 A3042 RMK A01 T00301010  RH  075%=      5-min Rain = 0
KTAS 150334Z 14005KT 03/M01 A3042 RMK A01 T00301010  RH  075%=      5-min Rain = 0
KTAS 150335Z 14005KT 03/M01 A3042 RMK A01 T00301009  RH  076%=      5-min Rain = 0
KTAS 150336Z 14005KT 03/M01 A3043 RMK A01 T00291010  RH  076%=      5-min Rain = 0
KTAS 150337Z 14005KT 03/M01 A3043 RMK A01 T00291010  RH  076%=      5-min Rain = 0
KTAS 150338Z 14005KT 03/M01 A3043 RMK A01 T00281010  RH  076%=      5-min Rain = 0
KTAS 150339Z 14005KT 03/M01 A3043 RMK A01 T00291010  RH  076%=      5-min Rain = 0
KTAS 150340Z 14005KT 03/M01 A3043 RMK A01 T00291009  RH  076%=      5-min Rain = 0
KTAS 150341Z 14005KT 03/M01 A3043 RMK A01 T00291009  RH  076%=      5-min Rain = 0
KTAS 150342Z 14005KT 03/M01 A3043 RMK A01 T00301008  RH  076%=      5-min Rain = 0
KTAS 150343Z 14005KT 03/M01 A3043 RMK A01 T00311008  RH  076%=      5-min Rain = 0
KTAS 150344Z 14005KT 03/M01 A3043 RMK A01 T00321008  RH  075%=      5-min Rain = 0
KTAS 150345Z 15005KT 03/M01 A3043 RMK A01 T00321008  RH  075%=      5-min Rain = 0
KTAS 150346Z 15005KT 03/M01 A3043 RMK A01 T00321009  RH  075%=      5-min Rain = 0
KTAS 150347Z 15005KT 03/M01 A3043 RMK A01 T00311010  RH  075%=      5-min Rain = 0
KTAS 150348Z 15005KT 03/M01 A3043 RMK A01 T00291011  RH  075%=      5-min Rain = 0
KTAS 150349Z 15005KT 03/M01 A3043 RMK A01 T00281010  RH  076%=      5-min Rain = 0
KTAS 150350Z 14005KT 03/M01 A3043 RMK A01 T00271010  RH  077%=      5-min Rain = 0
KTAS 150351Z 14005KT 03/M01 A3043 RMK A01 T00271009  RH  077%=      5-min Rain = 0
KTAS 150352Z 15005KT 03/M01 A3043 RMK A01 T00281009  RH  077%=      5-min Rain = 0
KTAS 150353Z 15005KT 03/M01 A3043 RMK A01 T00281009  RH  077%=      5-min Rain = 0
KTAS 150354Z 15005KT 03/M01 A3043 RMK A01 T00281010  RH  076%=      5-min Rain = 0
KTAS 150355Z 15005KT 03/M01 A3043 RMK A01 T00271010  RH  076%=      5-min Rain = 0
KTAS 150356Z 15005KT 03/M01 A3043 RMK A01 T00271010  RH  076%=      5-min Rain = 0
KTAS 150357Z 15005KT 03/M01 A3043 RMK A01 T00261011  RH  076%=      5-min Rain = 0
KTAS 150358Z 15005KT 03/M01 A3043 RMK A01 T00251012  RH  076%=      5-min Rain = 0
KTAS 150359Z 15005KT 02/M01 A3043 RMK A01 T00241013  RH  077%=      5-min Rain = 0
KTAS 150400Z 16004KT 02/M01 A3043 RMK A01 T00221013  RH  077%=      5-min Rain = 0
KTAS 150401Z 16005KT 02/M01 A3043 RMK A01 T00211014  RH  078%=      5-min Rain = 0
KTAS 150402Z 16005KT 02/M01 A3043 RMK A01 T00201014  RH  078%=      5-min Rain = 0
KTAS 150403Z 16005KT 02/M01 A3043 RMK A01 T00201013  RH  079%=      5-min Rain = 0
KTAS 150404Z 16005KT 02/M01 A3043 RMK A01 T00201012  RH  079%=      5-min Rain = 0
KTAS 150405Z 16005KT 02/M01 A3043 RMK A01 T00201013  RH  079%=      5-min Rain = 0
KTAS 150406Z 16005KT 02/M01 A3043 RMK A01 T00191013  RH  079%=      5-min Rain = 0
KTAS 150407Z 16005KT 02/M01 A3043 RMK A01 T00191012  RH  080%=      5-min Rain = 0
KTAS 150408Z 16005KT 02/M01 A3043 RMK A01 T00191011  RH  080%=      5-min Rain = 0
KTAS 150409Z 16005KT 02/M01 A3043 RMK A01 T00201010  RH  080%=      5-min Rain = 0
KTAS 150410Z 16005KT 02/M01 A3043 RMK A01 T00211010  RH  080%=      5-min Rain = 0
KTAS 150411Z 16005KT 02/M01 A3043 RMK A01 T00211010  RH  080%=      5-min Rain = 0
KTAS 150412Z 16005KT 02/M01 A3043 RMK A01 T00221009  RH  080%=      5-min Rain = 0
KTAS 150413Z 16005KT 02/M01 A3043 RMK A01 T00231010  RH  079%=      5-min Rain = 0
KTAS 150414Z 16005KT 02/M01 A3043 RMK A01 T00231011  RH  079%=      5-min Rain = 0
KTAS 150415Z 16005KT 02/M01 A3043 RMK A01 T00231011  RH  078%=      5-min Rain = 0
KTAS 150416Z 16005KT 02/M01 A3043 RMK A01 T00231011  RH  078%=      5-min Rain = 0
KTAS 150417Z 16005KT 02/M01 A3043 RMK A01 T00231011  RH  078%=      5-min Rain = 0
KTAS 150418Z 16005KT 02/M01 A3043 RMK A01 T00231012  RH  078%=      5-min Rain = 0
KTAS 150419Z 16005KT 02/M01 A3043 RMK A01 T00231012  RH  078%=      5-min Rain = 0
KTAS 150420Z 16005KT 02/M01 A3043 RMK A01 T00231012  RH  077%=      5-min Rain = 0
KTAS 150421Z 16005KT 02/M01 A3043 RMK A01 T00231012  RH  077%=      5-min Rain = 0
KTAS 150422Z 16005KT 02/M01 A3043 RMK A01 T00231012  RH  078%=      5-min Rain = 0
KTAS 150423Z 16005KT 02/M01 A3043 RMK A01 T00231012  RH  078%=      5-min Rain = 0
KTAS 150424Z 16005KT 02/M01 A3043 RMK A01 T00221013  RH  078%=      5-min Rain = 0
KTAS 150425Z 16005KT 02/M01 A3043 RMK A01 T00211013  RH  078%=      5-min Rain = 0
KTAS 150426Z 16005KT 02/M01 A3043 RMK A01 T00211013  RH  078%=      5-min Rain = 0
KTAS 150427Z 16005KT 02/M01 A3043 RMK A01 T00201013  RH  079%=      5-min Rain = 0
KTAS 150428Z 16005KT 02/M01 A3043 RMK A01 T00201013  RH  079%=      5-min Rain = 0
KTAS 150429Z 16005KT 02/M01 A3043 RMK A01 T00191014  RH  079%=      5-min Rain = 0
KTAS 150430Z 16004KT 02/M01 A3043 RMK A01 T00181014  RH  079%=      5-min Rain = 0
KTAS 150431Z 16004KT 02/M01 A3043 RMK A01 T00181014  RH  079%=      5-min Rain = 0
KTAS 150432Z 16004KT 02/M01 A3043 RMK A01 T00181013  RH  080%=      5-min Rain = 0
KTAS 150433Z 17004KT 02/M01 A3043 RMK A01 T00191012  RH  080%=      5-min Rain = 0
KTAS 150434Z 17004KT 02/M01 A3043 RMK A01 T00211010  RH  080%=      5-min Rain = 0
KTAS 150435Z 18004KT 02/M01 A3043 RMK A01 T00231009  RH  079%=      5-min Rain = 0
KTAS 150436Z 18004KT 03/M01 A3043 RMK A01 T00251009  RH  078%=      5-min Rain = 0
KTAS 150437Z 18004KT 03/M01 A3043 RMK A01 T00261010  RH  077%=      5-min Rain = 0
KTAS 150438Z 19004KT 03/M01 A3043 RMK A01 T00261011  RH  076%=      5-min Rain = 0
KTAS 150439Z 19004KT 03/M01 A3043 RMK A01 T00261012  RH  077%=      5-min Rain = 0
KTAS 150440Z 19004KT 03/M01 A3043 RMK A01 T00251011  RH  077%=      5-min Rain = 0
KTAS 150441Z 20004KT 03/M01 A3043 RMK A01 T00251011  RH  077%=      5-min Rain = 0
KTAS 150442Z 20004KT 02/M01 A3043 RMK A01 T00231012  RH  077%=      5-min Rain = 0
KTAS 150443Z 21004KT 02/M01 A3043 RMK A01 T00221012  RH  078%=      5-min Rain = 0
KTAS 150444Z 21004KT 02/M01 A3043 RMK A01 T00211013  RH  078%=      5-min Rain = 0
KTAS 150445Z 21004KT 02/M01 A3043 RMK A01 T00191014  RH  078%=      5-min Rain = 0
KTAS 150446Z 21004KT 02/M02 A3043 RMK A01 T00181015  RH  079%=      5-min Rain = 0
KTAS 150447Z 21004KT 02/M02 A3043 RMK A01 T00171015  RH  079%=      5-min Rain = 0
KTAS 150448Z 21004KT 02/M02 A3043 RMK A01 T00161015  RH  080%=      5-min Rain = 0
KTAS 150449Z 20004KT 02/M02 A3043 RMK A01 T00151015  RH  080%=      5-min Rain = 0
KTAS 150450Z 20004KT 02/M01 A3043 RMK A01 T00151014  RH  081%=      5-min Rain = 0
KTAS 150451Z 20004KT 02/M01 A3043 RMK A01 T00151013  RH  081%=      5-min Rain = 0
KTAS 150452Z 20004KT 02/M01 A3043 RMK A01 T00161012  RH  082%=      5-min Rain = 0
KTAS 150453Z 20004KT 02/M01 A3043 RMK A01 T00161011  RH  082%=      5-min Rain = 0
KTAS 150454Z 20004KT 02/M01 A3043 RMK A01 T00171011  RH  082%=      5-min Rain = 0
KTAS 150455Z 20004KT 02/M01 A3043 RMK A01 T00161012  RH  082%=      5-min Rain = 0
KTAS 150456Z 20004KT 02/M01 A3043 RMK A01 T00161012  RH  082%=      5-min Rain = 0
KTAS 150457Z 20004KT 02/M01 A3043 RMK A01 T00151012  RH  082%=      5-min Rain = 0
KTAS 150458Z 20004KT 02/M01 A3043 RMK A01 T00151012  RH  082%=      5-min Rain = 0
KTAS 150459Z 20004KT 01/M01 A3043 RMK A01 T00141012  RH  083%=      5-min Rain = 0
KTAS 150500Z 20004KT 01/M01 A3043 RMK A01 T00141012  RH  083%=      5-min Rain = 0
KTAS 150501Z 21004KT 01/M01 A3043 RMK A01 T00141012  RH  083%=      5-min Rain = 0
KTAS 150502Z 21004KT 01/M01 A3043 RMK A01 T00131013  RH  083%=      5-min Rain = 0
KTAS 150503Z 21004KT 01/M01 A3043 RMK A01 T00131013  RH  083%=      5-min Rain = 0
KTAS 150504Z 21004KT 01/M01 A3043 RMK A01 T00141012  RH  083%=      5-min Rain = 0
KTAS 150505Z 21004KT 01/M01 A3043 RMK A01 T00141011  RH  083%=      5-min Rain = 0
KTAS 150506Z 21004KT 02/M01 A3043 RMK A01 T00151011  RH  083%=      5-min Rain = 0
KTAS 150507Z 21004KT 02/M01 A3043 RMK A01 T00161011  RH  082%=      5-min Rain = 0
KTAS 150508Z 21004KT 02/M01 A3043 RMK A01 T00161011  RH  082%=      5-min Rain = 0
KTAS 150509Z 21004KT 02/M01 A3043 RMK A01 T00161011  RH  082%=      5-min Rain = 0
KTAS 150510Z 21004KT 02/M01 A3043 RMK A01 T00171010  RH  082%=      5-min Rain = 0
KTAS 150511Z 21004KT 02/M01 A3043 RMK A01 T00171010  RH  082%=      5-min Rain = 0
KTAS 150512Z 21004KT 02/M01 A3043 RMK A01 T00181010  RH  082%=      5-min Rain = 0
KTAS 150513Z 21004KT 02/M01 A3043 RMK A01 T00181011  RH  081%=      5-min Rain = 0
KTAS 150514Z 21004KT 02/M01 A3043 RMK A01 T00191010  RH  081%=      5-min Rain = 0
KTAS 150515Z 21004KT 02/M01 A3043 RMK A01 T00191010  RH  081%=      5-min Rain = 0
KTAS 150516Z 21004KT 02/M01 A3043 RMK A01 T00191010  RH  081%=      5-min Rain = 0
KTAS 150517Z 21004KT 02/M01 A3043 RMK A01 T00191010  RH  081%=      5-min Rain = 0
KTAS 150518Z 21004KT 02/M01 A3043 RMK A01 T00191010  RH  081%=      5-min Rain = 0
KTAS 150519Z 21004KT 02/M01 A3043 RMK A01 T00191010  RH  081%=      5-min Rain = 0
KTAS 150520Z 21004KT 02/M01 A3043 RMK A01 T00191010  RH  081%=      5-min Rain = 0
KTAS 150521Z 21004KT 02/M01 A3043 RMK A01 T00191010  RH  081%=      5-min Rain = 0
KTAS 150522Z 21004KT 02/M01 A3043 RMK A01 T00191010  RH  081%=      5-min Rain = 0
KTAS 150523Z 21004KT 02/M01 A3043 RMK A01 T00191010  RH  081%=      5-min Rain = 0
KTAS 150524Z 21004KT 02/M01 A3043 RMK A01 T00191010  RH  081%=      5-min Rain = 0
KTAS 150525Z 21004KT 02/M01 A3043 RMK A01 T00191010  RH  081%=      5-min Rain = 0
KTAS 150526Z 21004KT 02/M01 A3043 RMK A01 T00191010  RH  081%=      5-min Rain = 0
KTAS 150527Z 21003KT 02/M01 A3043 RMK A01 T00191010  RH  081%=      5-min Rain = 0
KTAS 150528Z 21003KT 02/M01 A3043 RMK A01 T00181011  RH  081%=      5-min Rain = 0
KTAS 150529Z 21003KT 02/M01 A3043 RMK A01 T00181010  RH  082%=      5-min Rain = 0
KTAS 150530Z 21003KT 02/M01 A3043 RMK A01 T00171010  RH  082%=      5-min Rain = 0
KTAS 150531Z 21003KT 02/M01 A3043 RMK A01 T00171010  RH  082%=      5-min Rain = 0
KTAS 150532Z 21003KT 02/M01 A3043 RMK A01 T00171010  RH  082%=      5-min Rain = 0
KTAS 150533Z 21004KT 02/M01 A3043 RMK A01 T00171010  RH  083%=      5-min Rain = 0
KTAS 150534Z 21004KT 02/M01 A3043 RMK A01 T00161010  RH  083%=      5-min Rain = 0
KTAS 150535Z 21004KT 02/M01 A3043 RMK A01 T00161010  RH  083%=      5-min Rain = 0
KTAS 150536Z 21004KT 02/M01 A3043 RMK A01 T00161011  RH  082%=      5-min Rain = 0
KTAS 150537Z 21004KT 02/M01 A3043 RMK A01 T00151012  RH  082%=      5-min Rain = 0
KTAS 150538Z 21004KT 02/M01 A3043 RMK A01 T00151012  RH  082%=      5-min Rain = 0
KTAS 150539Z 21004KT 01/M01 A3043 RMK A01 T00141012  RH  083%=      5-min Rain = 0
KTAS 150540Z 21004KT 01/M01 A3043 RMK A01 T00141012  RH  083%=      5-min Rain = 0
KTAS 150541Z 21004KT 01/M01 A3043 RMK A01 T00141012  RH  083%=      5-min Rain = 0
KTAS 150542Z 21004KT 01/M01 A3043 RMK A01 T00141011  RH  083%=      5-min Rain = 0
KTAS 150543Z 21004KT 01/M01 A3043 RMK A01 T00141012  RH  083%=      5-min Rain = 0
KTAS 150544Z 21004KT 01/M01 A3043 RMK A01 T00131013  RH  083%=      5-min Rain = 0
KTAS 150545Z 21004KT 01/M01 A3043 RMK A01 T00121014  RH  082%=      5-min Rain = 0
KTAS 150546Z 21004KT 01/M02 A3043 RMK A01 T00111015  RH  083%=      5-min Rain = 0
KTAS 150547Z 21004KT 01/M02 A3043 RMK A01 T00111015  RH  083%=      5-min Rain = 0
KTAS 150548Z 21004KT 01/M02 A3043 RMK A01 T00111015  RH  083%=      5-min Rain = 0
KTAS 150549Z 21004KT 01/M01 A3043 RMK A01 T00111014  RH  083%=      5-min Rain = 0
KTAS 150550Z 21004KT 01/M01 A3043 RMK A01 T00111014  RH  084%=      5-min Rain = 0
KTAS 150551Z 21004KT 01/M01 A3043 RMK A01 T00111014  RH  083%=      5-min Rain = 0
KTAS 150552Z 21004KT 01/M01 A3043 RMK A01 T00121013  RH  083%=      5-min Rain = 0
KTAS 150553Z 21004KT 01/M01 A3043 RMK A01 T00121013  RH  084%=      5-min Rain = 0
KTAS 150554Z 21003KT 01/M01 A3043 RMK A01 T00121013  RH  083%=      5-min Rain = 0
KTAS 150555Z 21003KT 01/M01 A3043 RMK A01 T00121013  RH  083%=      5-min Rain = 0
KTAS 150556Z 21003KT 01/M01 A3043 RMK A01 T00121014  RH  083%=      5-min Rain = 0
KTAS 150557Z 21003KT 01/M01 A3043 RMK A01 T00121014  RH  083%=      5-min Rain = 0
KTAS 150558Z 21003KT 01/M02 A3043 RMK A01 T00111015  RH  083%=      5-min Rain = 0
KTAS 150559Z 21003KT 01/M02 A3043 RMK A01 T00111015  RH  083%=      5-min Rain = 0

Page generated in 0.1307 seconds.